Time,TemperatureF,DewpointF,PressureIn,WindDirection,WindDirectionDegrees,WindSpeedMPH,WindSpeedGustMPH,Humidity,HourlyPrecipIn,Conditions,Clouds,dailyrainin,SoftwareType,DateUTC
2013-06-04 00:00:00,59.6,57.9,29.78,NW,323,0.0,0.0,94,0.00,,SKC,0.00,VWS V14.01,2013-06-04 04:00:00,
2013-06-04 00:01:00,59.6,57.9,29.78,NW,326,0.0,0.0,94,0.00,,SKC,0.00,VWS V14.01,2013-06-04 04:01:00,
2013-06-04 00:02:00,59.5,57.8,29.78,NW,325,0.0,0.0,94,0.00,,SKC,0.00,VWS V14.01,2013-06-04 04:02:00,
2013-06-04 00:06:00,59.2,57.5,29.78,NW,326,0.0,0.0,94,0.00,,SKC,0.00,VWS V14.01,2013-06-04 04:06:00,
2013-06-04 00:07:00,59.2,57.5,29.78,NW,326,0.0,0.0,94,0.00,,SKC,0.00,VWS V14.01,2013-06-04 04:07:00,
2013-06-04 00:12:00,59.0,57.3,29.78,NW,323,0.0,0.0,94,0.00,,SKC,0.00,VWS V14.01,2013-06-04 04:12:00,
2013-06-04 00:13:00,59.0,57.3,29.78,NW,325,0.0,0.0,94,0.00,,SKC,0.00,VWS V14.01,2013-06-04 04:13:00,
2013-06-04 00:14:00,58.9,57.2,29.78,NW,326,0.0,0.0,94,0.00,,SKC,0.00,VWS V14.01,2013-06-04 04:14:00,
2013-06-04 00:17:00,58.7,57.0,29.79,NNW,346,0.0,2.0,94,0.00,,SKC,0.00,VWS V14.01,2013-06-04 04:17:00,
2013-06-04 00:18:00,58.7,57.0,29.79,NNW,346,0.0,2.0,94,0.00,,SKC,0.00,VWS V14.01,2013-06-04 04:18:00,
2013-06-04 00:19:00,58.6,56.9,29.79,NNW,346,0.0,2.0,94,0.00,,SKC,0.00,VWS V14.01,2013-06-04 04:19:00,
2013-06-04 00:22:00,58.6,56.9,29.79,NNW,344,0.0,0.0,94,0.00,,SKC,0.00,VWS V14.01,2013-06-04 04:22:00,
2013-06-04 00:23:00,58.6,56.9,29.79,NNW,346,0.0,0.0,94,0.00,,SKC,0.00,VWS V14.01,2013-06-04 04:23:00,
2013-06-04 00:24:00,58.4,56.7,29.79,West,278,0.0,1.0,94,0.00,,SKC,0.00,VWS V14.01,2013-06-04 04:24:00,
2013-06-04 00:28:00,58.3,56.6,29.79,West,277,0.0,0.0,94,0.00,,SKC,0.00,VWS V14.01,2013-06-04 04:28:00,
2013-06-04 00:30:00,58.0,56.0,29.78,West,277,0.0,0.0,93,0.00,,SKC,0.00,VWS V14.01,2013-06-04 04:30:00,
2013-06-04 00:33:00,57.8,55.8,29.78,West,278,0.0,1.0,93,0.00,,SKC,0.00,VWS V14.01,2013-06-04 04:33:00,
2013-06-04 00:34:00,57.8,55.8,29.78,West,278,0.0,1.0,93,0.00,,SKC,0.00,VWS V14.01,2013-06-04 04:34:00,
2013-06-04 00:35:00,57.8,55.8,29.78,West,280,0.0,1.0,93,0.00,,SKC,0.00,VWS V14.01,2013-06-04 04:35:00,
2013-06-04 00:39:00,57.6,55.6,29.78,WNW,284,0.0,0.0,93,0.00,,SKC,0.00,VWS V14.01,2013-06-04 04:39:00,
2013-06-04 00:40:00,57.5,55.5,29.78,WNW,284,0.0,0.0,93,0.00,,SKC,0.00,VWS V14.01,2013-06-04 04:40:00,
2013-06-04 00:44:00,57.2,55.2,29.78,WNW,284,0.0,0.0,93,0.00,,SKC,0.00,VWS V14.01,2013-06-04 04:44:00,
2013-06-04 00:45:00,57.0,55.0,29.79,WNW,284,0.0,0.0,93,0.00,,SKC,0.00,VWS V14.01,2013-06-04 04:45:00,
2013-06-04 00:49:00,56.9,54.9,29.79,WNW,282,0.0,0.0,93,0.00,,SKC,0.00,VWS V14.01,2013-06-04 04:49:00,
2013-06-04 00:50:00,56.9,54.9,29.79,WNW,282,0.0,0.0,93,0.00,,SKC,0.00,VWS V14.01,2013-06-04 04:50:00,
2013-06-04 00:55:00,56.6,54.6,29.79,WNW,284,0.0,0.0,93,0.00,,SKC,0.00,VWS V14.01,2013-06-04 04:55:00,
2013-06-04 01:00:00,55.9,53.6,29.80,WNW,284,0.0,1.0,92,0.00,,SKC,0.00,VWS V14.01,2013-06-04 05:00:00,
2013-06-04 01:01:00,55.9,53.6,29.80,WNW,284,0.0,1.0,92,0.00,,SKC,0.00,VWS V14.01,2013-06-04 05:01:00,
2013-06-04 01:05:00,55.7,53.4,29.80,WNW,282,0.0,0.0,92,0.00,,SKC,0.00,VWS V14.01,2013-06-04 05:05:00,
2013-06-04 01:06:00,55.6,53.3,29.80,WNW,284,0.0,0.0,92,0.00,,SKC,0.00,VWS V14.01,2013-06-04 05:06:00,
2013-06-04 01:07:00,55.6,53.3,29.80,WNW,284,0.0,0.0,92,0.00,,SKC,0.00,VWS V14.01,2013-06-04 05:07:00,
2013-06-04 01:10:00,55.3,53.0,29.80,WNW,282,0.0,0.0,92,0.00,,SKC,0.00,VWS V14.01,2013-06-04 05:10:00,
2013-06-04 01:11:00,55.3,53.0,29.80,WNW,284,0.0,0.0,92,0.00,,SKC,0.00,VWS V14.01,2013-06-04 05:11:00,
2013-06-04 01:12:00,55.3,53.0,29.80,WNW,282,0.0,0.0,92,0.00,,SKC,0.00,VWS V14.01,2013-06-04 05:12:00,
2013-06-04 01:16:00,55.1,52.8,29.81,WNW,282,0.0,0.0,92,0.00,,SKC,0.00,VWS V14.01,2013-06-04 05:16:00,
2013-06-04 01:17:00,55.1,52.8,29.81,WNW,282,0.0,0.0,92,0.00,,SKC,0.00,VWS V14.01,2013-06-04 05:17:00,
2013-06-04 01:18:00,55.0,52.7,29.81,WNW,284,0.0,0.0,92,0.00,,SKC,0.00,VWS V14.01,2013-06-04 05:18:00,
2013-06-04 01:22:00,54.8,52.5,29.81,WNW,284,0.0,0.0,92,0.00,,SKC,0.00,VWS V14.01,2013-06-04 05:22:00,
2013-06-04 01:23:00,54.7,52.4,29.81,West,278,0.0,0.0,92,0.00,,SKC,0.00,VWS V14.01,2013-06-04 05:23:00,
2013-06-04 01:27:00,54.5,52.2,29.81,WNW,282,0.0,0.0,92,0.00,,SKC,0.00,VWS V14.01,2013-06-04 05:27:00,
2013-06-04 01:28:00,54.5,52.2,29.81,WNW,282,0.0,0.0,92,0.00,,SKC,0.00,VWS V14.01,2013-06-04 05:28:00,
2013-06-04 01:32:00,54.1,51.8,29.81,WNW,294,0.0,1.0,92,0.00,,SKC,0.00,VWS V14.01,2013-06-04 05:32:00,
2013-06-04 01:33:00,54.1,51.8,29.81,WNW,294,0.0,1.0,92,0.00,,SKC,0.00,VWS V14.01,2013-06-04 05:33:00,
2013-06-04 01:34:00,53.9,51.6,29.81,WNW,292,0.0,1.0,92,0.00,,SKC,0.00,VWS V14.01,2013-06-04 05:34:00,
2013-06-04 01:38:00,53.9,51.6,29.81,WNW,296,1.0,1.0,92,0.00,,SKC,0.00,VWS V14.01,2013-06-04 05:38:00,
2013-06-04 01:39:00,53.8,51.5,29.81,WNW,295,0.0,1.0,92,0.00,,SKC,0.00,VWS V14.01,2013-06-04 05:39:00,
2013-06-04 01:43:00,53.5,51.2,29.81,WNW,296,0.0,0.0,92,0.00,,SKC,0.00,VWS V14.01,2013-06-04 05:43:00,
2013-06-04 01:44:00,53.5,51.2,29.81,WNW,298,0.0,0.0,92,0.00,,SKC,0.00,VWS V14.01,2013-06-04 05:44:00,
2013-06-04 01:45:00,53.3,51.0,29.81,WNW,296,0.0,0.0,92,0.00,,SKC,0.00,VWS V14.01,2013-06-04 05:45:00,
2013-06-04 01:48:00,53.1,50.8,29.81,WNW,296,0.0,0.0,92,0.00,,SKC,0.00,VWS V14.01,2013-06-04 05:48:00,
2013-06-04 01:49:00,53.1,50.8,29.81,WNW,298,0.0,0.0,92,0.00,,SKC,0.00,VWS V14.01,2013-06-04 05:49:00,
2013-06-04 01:50:00,53.1,50.8,29.81,WNW,301,0.0,0.0,92,0.00,,SKC,0.00,VWS V14.01,2013-06-04 05:50:00,
2013-06-04 01:53:00,52.9,50.3,29.81,WNW,298,0.0,0.0,91,0.00,,SKC,0.00,VWS V14.01,2013-06-04 05:53:00,
2013-06-04 01:54:00,52.9,50.3,29.81,WNW,298,0.0,0.0,91,0.00,,SKC,0.00,VWS V14.01,2013-06-04 05:54:00,
2013-06-04 01:55:00,52.9,50.3,29.81,WNW,298,0.0,0.0,91,0.00,,SKC,0.00,VWS V14.01,2013-06-04 05:55:00,
2013-06-04 01:57:00,52.8,50.2,29.81,WNW,296,0.0,0.0,91,0.00,,SKC,0.00,VWS V14.01,2013-06-04 05:57:00,
2013-06-04 01:59:00,52.8,50.2,29.81,WNW,294,0.0,1.0,91,0.00,,SKC,0.00,VWS V14.01,2013-06-04 05:59:00,
2013-06-04 02:00:00,52.6,49.8,29.81,WNW,292,0.0,1.0,90,0.00,,SKC,0.00,VWS V14.01,2013-06-04 06:00:00,
2013-06-04 02:02:00,52.5,49.7,29.81,WNW,292,0.0,0.0,90,0.00,,SKC,0.00,VWS V14.01,2013-06-04 06:02:00,
2013-06-04 02:04:00,52.6,49.8,29.81,WNW,294,0.0,0.0,90,0.00,,SKC,0.00,VWS V14.01,2013-06-04 06:04:00,
2013-06-04 02:05:00,52.6,49.8,29.81,WNW,292,0.0,0.0,90,0.00,,SKC,0.00,VWS V14.01,2013-06-04 06:05:00,
2013-06-04 02:06:00,52.6,49.8,29.81,WNW,291,0.0,0.0,90,0.00,,SKC,0.00,VWS V14.01,2013-06-04 06:06:00,
2013-06-04 02:07:00,52.5,49.7,29.81,WNW,291,0.0,0.0,90,0.00,,SKC,0.00,VWS V14.01,2013-06-04 06:07:00,
2013-06-04 02:09:00,52.3,49.5,29.81,WNW,291,0.0,0.0,90,0.00,,SKC,0.00,VWS V14.01,2013-06-04 06:09:00,
2013-06-04 02:10:00,52.2,49.4,29.81,WNW,291,0.0,0.0,90,0.00,,SKC,0.00,VWS V14.01,2013-06-04 06:10:00,
2013-06-04 02:11:00,52.2,49.4,29.81,WNW,291,0.0,0.0,90,0.00,,SKC,0.00,VWS V14.01,2013-06-04 06:11:00,
2013-06-04 02:12:00,52.2,49.4,29.81,WNW,292,0.0,0.0,90,0.00,,SKC,0.00,VWS V14.01,2013-06-04 06:12:00,
2013-06-04 02:14:00,52.2,49.1,29.81,WNW,291,0.0,0.0,89,0.00,,SKC,0.00,VWS V14.01,2013-06-04 06:14:00,
2013-06-04 02:15:00,52.2,49.1,29.81,WNW,291,0.0,0.0,89,0.00,,SKC,0.00,VWS V14.01,2013-06-04 06:15:00,
2013-06-04 02:16:00,52.2,49.1,29.81,WNW,292,0.0,0.0,89,0.00,,SKC,0.00,VWS V14.01,2013-06-04 06:16:00,
2013-06-04 02:17:00,52.0,48.9,29.81,WNW,291,0.0,0.0,89,0.00,,SKC,0.00,VWS V14.01,2013-06-04 06:17:00,
2013-06-04 02:20:00,51.9,48.2,29.81,NW,315,0.0,1.0,87,0.00,,SKC,0.00,VWS V14.01,2013-06-04 06:20:00,
2013-06-04 02:21:00,51.9,48.2,29.81,NW,316,0.0,2.0,87,0.00,,SKC,0.00,VWS V14.01,2013-06-04 06:21:00,
2013-06-04 02:22:00,51.7,47.3,29.81,NW,316,0.0,2.0,85,0.00,,SKC,0.00,VWS V14.01,2013-06-04 06:22:00,
2013-06-04 02:23:00,51.7,47.3,29.81,NW,316,0.0,2.0,85,0.00,,SKC,0.00,VWS V14.01,2013-06-04 06:23:00,
2013-06-04 02:25:00,51.7,46.4,29.81,NNW,339,1.0,2.0,82,0.00,,SKC,0.00,VWS V14.01,2013-06-04 06:25:00,
2013-06-04 02:26:00,51.7,46.4,29.81,NNW,339,0.0,2.0,82,0.00,,SKC,0.00,VWS V14.01,2013-06-04 06:26:00,
2013-06-04 02:28:00,51.7,46.4,29.81,NNW,337,0.0,2.0,82,0.00,,SKC,0.00,VWS V14.01,2013-06-04 06:28:00,
2013-06-04 02:31:00,51.7,46.4,29.81,North,349,1.0,3.0,82,0.00,,SKC,0.00,VWS V14.01,2013-06-04 06:31:00,
2013-06-04 02:33:00,51.7,46.1,29.81,North,350,0.0,3.0,81,0.00,,SKC,0.00,VWS V14.01,2013-06-04 06:33:00,
2013-06-04 02:36:00,51.9,46.3,29.81,North,350,0.0,0.0,81,0.00,,SKC,0.00,VWS V14.01,2013-06-04 06:36:00,
2013-06-04 02:38:00,51.9,46.3,29.81,North,350,0.0,0.0,81,0.00,,SKC,0.00,VWS V14.01,2013-06-04 06:38:00,
2013-06-04 02:39:00,51.9,46.3,29.81,North,350,0.0,0.0,81,0.00,,SKC,0.00,VWS V14.01,2013-06-04 06:39:00,
2013-06-04 02:42:00,51.7,45.7,29.81,North,350,0.0,3.0,80,0.00,,SKC,0.00,VWS V14.01,2013-06-04 06:42:00,
2013-06-04 02:43:00,51.7,45.7,29.81,NNW,347,0.0,3.0,80,0.00,,SKC,0.00,VWS V14.01,2013-06-04 06:43:00,
2013-06-04 02:44:00,51.7,45.7,29.81,NNW,347,0.0,3.0,80,0.00,,SKC,0.00,VWS V14.01,2013-06-04 06:44:00,
2013-06-04 02:48:00,51.6,46.0,29.81,NNW,346,0.0,0.0,81,0.00,,SKC,0.00,VWS V14.01,2013-06-04 06:48:00,
2013-06-04 02:49:00,51.6,45.6,29.81,NNW,346,0.0,0.0,80,0.00,,SKC,0.00,VWS V14.01,2013-06-04 06:49:00,
2013-06-04 02:50:00,51.6,45.6,29.81,NNW,347,0.0,0.0,80,0.00,,SKC,0.00,VWS V14.01,2013-06-04 06:50:00,
2013-06-04 02:53:00,51.6,45.6,29.81,NNW,346,0.0,0.0,80,0.00,,SKC,0.00,VWS V14.01,2013-06-04 06:53:00,
2013-06-04 02:54:00,51.6,45.6,29.81,NNW,347,0.0,0.0,80,0.00,,SKC,0.00,VWS V14.01,2013-06-04 06:54:00,
2013-06-04 02:55:00,51.6,45.6,29.81,NNW,347,0.0,0.0,80,0.00,,SKC,0.00,VWS V14.01,2013-06-04 06:55:00,
2013-06-04 02:58:00,51.6,46.0,29.81,NNW,347,0.0,0.0,81,0.00,,SKC,0.00,VWS V14.01,2013-06-04 06:58:00,
2013-06-04 02:59:00,51.6,46.0,29.82,NNW,347,0.0,0.0,81,0.00,,SKC,0.00,VWS V14.01,2013-06-04 06:59:00,
2013-06-04 03:00:00,51.6,46.0,29.82,NNW,346,0.0,0.0,81,0.00,,SKC,0.00,VWS V14.01,2013-06-04 07:00:00,
2013-06-04 03:04:00,51.6,46.3,29.82,NNW,346,0.0,0.0,82,0.00,,SKC,0.00,VWS V14.01,2013-06-04 07:04:00,
2013-06-04 03:05:00,51.6,46.3,29.82,NNW,346,0.0,0.0,82,0.00,,SKC,0.00,VWS V14.01,2013-06-04 07:05:00,
2013-06-04 03:07:00,51.6,46.3,29.82,NNW,347,0.0,0.0,82,0.00,,SKC,0.00,VWS V14.01,2013-06-04 07:07:00,
2013-06-04 03:09:00,51.6,46.0,29.82,NW,320,0.0,1.0,81,0.00,,SKC,0.00,VWS V14.01,2013-06-04 07:09:00,
2013-06-04 03:10:00,51.4,45.8,29.82,NW,322,0.0,0.0,81,0.00,,SKC,0.00,VWS V14.01,2013-06-04 07:10:00,
2013-06-04 03:11:00,51.4,45.8,29.82,WNW,284,0.0,0.0,81,0.00,,SKC,0.00,VWS V14.01,2013-06-04 07:11:00,
2013-06-04 03:13:00,51.4,45.1,29.82,WNW,284,0.0,0.0,79,0.00,,SKC,0.00,VWS V14.01,2013-06-04 07:13:00,
2013-06-04 03:14:00,51.4,45.1,29.82,WNW,284,0.0,0.0,79,0.00,,SKC,0.00,VWS V14.01,2013-06-04 07:14:00,
2013-06-04 03:15:00,51.4,44.4,29.82,WNW,282,0.0,0.0,77,0.00,,SKC,0.00,VWS V14.01,2013-06-04 07:15:00,
2013-06-04 03:16:00,51.6,44.3,29.82,West,281,0.0,0.0,76,0.00,,SKC,0.00,VWS V14.01,2013-06-04 07:16:00,
2013-06-04 03:18:00,51.7,44.4,29.82,WNW,284,0.0,0.0,76,0.00,,SKC,0.00,VWS V14.01,2013-06-04 07:18:00,
2013-06-04 03:19:00,51.7,44.4,29.82,WNW,282,0.0,0.0,76,0.00,,SKC,0.00,VWS V14.01,2013-06-04 07:19:00,
2013-06-04 03:20:00,51.7,44.4,29.82,WNW,282,0.0,0.0,76,0.00,,SKC,0.00,VWS V14.01,2013-06-04 07:20:00,
2013-06-04 03:21:00,51.9,44.6,29.82,WNW,284,0.0,0.0,76,0.00,,SKC,0.00,VWS V14.01,2013-06-04 07:21:00,
2013-06-04 03:23:00,51.9,43.9,29.82,WNW,284,0.0,0.0,74,0.00,,SKC,0.00,VWS V14.01,2013-06-04 07:23:00,
2013-06-04 03:24:00,52.0,44.0,29.82,WNW,284,0.0,0.0,74,0.00,,SKC,0.00,VWS V14.01,2013-06-04 07:24:00,
2013-06-04 03:26:00,52.0,44.0,29.82,WNW,284,0.0,0.0,74,0.00,,SKC,0.00,VWS V14.01,2013-06-04 07:26:00,
2013-06-04 03:27:00,52.0,44.0,29.82,WNW,282,0.0,0.0,74,0.00,,SKC,0.00,VWS V14.01,2013-06-04 07:27:00,
2013-06-04 03:28:00,52.0,43.3,29.82,WNW,284,0.0,0.0,72,0.00,,SKC,0.00,VWS V14.01,2013-06-04 07:28:00,
2013-06-04 03:29:00,52.0,43.6,29.82,WNW,282,0.0,0.0,73,0.00,,SKC,0.00,VWS V14.01,2013-06-04 07:29:00,
2013-06-04 03:32:00,52.2,43.5,29.82,NW,323,0.0,2.0,72,0.00,,SKC,0.00,VWS V14.01,2013-06-04 07:32:00,
2013-06-04 03:34:00,52.2,43.5,29.82,NW,323,0.0,2.0,72,0.00,,SKC,0.00,VWS V14.01,2013-06-04 07:34:00,
2013-06-04 03:37:00,52.3,43.9,29.82,NW,322,0.0,0.0,73,0.00,,SKC,0.00,VWS V14.01,2013-06-04 07:37:00,
2013-06-04 03:39:00,52.3,45.0,29.82,NW,322,0.0,0.0,76,0.00,,SKC,0.00,VWS V14.01,2013-06-04 07:39:00,
2013-06-04 03:40:00,52.3,45.0,29.82,NW,313,0.0,0.0,76,0.00,,SKC,0.00,VWS V14.01,2013-06-04 07:40:00,
2013-06-04 03:42:00,52.3,45.3,29.82,NW,315,0.0,0.0,77,0.00,,SKC,0.00,VWS V14.01,2013-06-04 07:42:00,
2013-06-04 03:43:00,52.3,45.3,29.82,NW,315,0.0,0.0,77,0.00,,SKC,0.00,VWS V14.01,2013-06-04 07:43:00,
2013-06-04 03:44:00,52.3,45.3,29.83,NW,315,0.0,0.0,77,0.00,,SKC,0.00,VWS V14.01,2013-06-04 07:44:00,
2013-06-04 03:45:00,52.3,45.7,29.83,NW,318,0.0,0.0,78,0.00,,SKC,0.00,VWS V14.01,2013-06-04 07:45:00,
2013-06-04 03:48:00,52.2,45.2,29.83,NW,311,1.0,1.0,77,0.00,,SKC,0.00,VWS V14.01,2013-06-04 07:48:00,
2013-06-04 03:49:00,52.2,44.5,29.83,NW,311,0.0,1.0,75,0.00,,SKC,0.00,VWS V14.01,2013-06-04 07:49:00,
2013-06-04 03:50:00,52.2,44.5,29.83,NW,311,0.0,1.0,75,0.00,,SKC,0.00,VWS V14.01,2013-06-04 07:50:00,
2013-06-04 03:53:00,52.2,45.2,29.83,SE,141,0.0,1.0,77,0.00,,SKC,0.00,VWS V14.01,2013-06-04 07:53:00,
2013-06-04 03:55:00,52.0,44.0,29.83,West,277,0.0,0.0,74,0.00,,SKC,0.00,VWS V14.01,2013-06-04 07:55:00,
2013-06-04 03:58:00,51.9,43.2,29.83,NNW,329,1.0,1.0,72,0.00,,SKC,0.00,VWS V14.01,2013-06-04 07:58:00,
2013-06-04 03:59:00,51.9,43.2,29.83,NNW,330,0.0,1.0,72,0.00,,SKC,0.00,VWS V14.01,2013-06-04 07:59:00,
2013-06-04 04:00:00,51.9,43.5,29.83,West,277,0.0,1.0,73,0.00,,SKC,0.00,VWS V14.01,2013-06-04 08:00:00,
2013-06-04 04:01:00,51.9,43.5,29.83,West,277,0.0,1.0,73,0.00,,SKC,0.00,VWS V14.01,2013-06-04 08:01:00,
2013-06-04 04:03:00,51.9,43.2,29.83,South,171,0.0,1.0,72,0.00,,SKC,0.00,VWS V14.01,2013-06-04 08:03:00,
2013-06-04 04:04:00,51.9,43.2,29.83,South,172,1.0,1.0,72,0.00,,SKC,0.00,VWS V14.01,2013-06-04 08:04:00,
2013-06-04 04:05:00,51.9,43.2,29.83,WSW,246,0.0,1.0,72,0.00,,SKC,0.00,VWS V14.01,2013-06-04 08:05:00,
2013-06-04 04:06:00,51.9,43.2,29.83,West,275,3.0,3.0,72,0.00,,SKC,0.00,VWS V14.01,2013-06-04 08:06:00,
2013-06-04 04:09:00,51.7,43.0,29.83,West,272,0.0,3.0,72,0.00,,SKC,0.00,VWS V14.01,2013-06-04 08:09:00,
2013-06-04 04:11:00,51.7,43.0,29.83,West,277,0.0,0.0,72,0.00,,SKC,0.00,VWS V14.01,2013-06-04 08:11:00,
2013-06-04 04:12:00,51.9,43.9,29.83,West,275,0.0,0.0,74,0.00,,SKC,0.00,VWS V14.01,2013-06-04 08:12:00,
2013-06-04 04:13:00,51.9,43.9,29.83,West,275,0.0,0.0,74,0.00,,SKC,0.00,VWS V14.01,2013-06-04 08:13:00,
2013-06-04 04:14:00,51.7,43.7,29.83,West,280,0.0,1.0,74,0.00,,SKC,0.00,VWS V14.01,2013-06-04 08:14:00,
2013-06-04 04:17:00,51.7,43.3,29.83,NW,315,0.0,1.0,73,0.00,,SKC,0.00,VWS V14.01,2013-06-04 08:17:00,
2013-06-04 04:18:00,51.6,43.6,29.83,NW,316,0.0,1.0,74,0.00,,SKC,0.00,VWS V14.01,2013-06-04 08:18:00,
2013-06-04 04:19:00,51.6,43.6,29.83,NW,318,0.0,1.0,74,0.00,,SKC,0.00,VWS V14.01,2013-06-04 08:19:00,
2013-06-04 04:22:00,51.4,43.8,29.83,West,261,0.0,1.0,75,0.00,,SKC,0.00,VWS V14.01,2013-06-04 08:22:00,
2013-06-04 04:23:00,51.4,43.8,29.83,WSW,258,0.0,1.0,75,0.00,,SKC,0.00,VWS V14.01,2013-06-04 08:23:00,
2013-06-04 04:25:00,51.4,44.8,29.83,WSW,258,0.0,1.0,78,0.00,,SKC,0.00,VWS V14.01,2013-06-04 08:25:00,
2013-06-04 04:28:00,51.3,45.0,29.83,WSW,257,0.0,0.0,79,0.00,,SKC,0.00,VWS V14.01,2013-06-04 08:28:00,
2013-06-04 04:29:00,51.1,44.5,29.83,WSW,258,0.0,0.0,78,0.00,,SKC,0.00,VWS V14.01,2013-06-04 08:29:00,
2013-06-04 04:30:00,51.1,44.5,29.83,WSW,254,0.0,0.0,78,0.00,,SKC,0.00,VWS V14.01,2013-06-04 08:30:00,
2013-06-04 04:33:00,51.0,45.1,29.83,WNW,288,0.0,0.0,80,0.00,,SKC,0.00,VWS V14.01,2013-06-04 08:33:00,
2013-06-04 04:34:00,50.7,44.8,29.83,WNW,287,0.0,0.0,80,0.00,,SKC,0.00,VWS V14.01,2013-06-04 08:34:00,
2013-06-04 04:35:00,50.5,43.2,29.83,WNW,284,0.0,0.0,76,0.00,,SKC,0.00,VWS V14.01,2013-06-04 08:35:00,
2013-06-04 04:37:00,50.5,42.9,29.83,WNW,287,0.0,0.0,75,0.00,,SKC,0.00,VWS V14.01,2013-06-04 08:37:00,
2013-06-04 04:38:00,50.5,42.9,29.83,WNW,289,0.0,0.0,75,0.00,,SKC,0.00,VWS V14.01,2013-06-04 08:38:00,
2013-06-04 04:39:00,50.5,43.2,29.83,WNW,284,0.0,0.0,76,0.00,,SKC,0.00,VWS V14.01,2013-06-04 08:39:00,
2013-06-04 04:40:00,50.5,43.2,29.83,WNW,285,0.0,0.0,76,0.00,,SKC,0.00,VWS V14.01,2013-06-04 08:40:00,
2013-06-04 04:42:00,50.4,42.4,29.83,WNW,285,0.0,0.0,74,0.00,,SKC,0.00,VWS V14.01,2013-06-04 08:42:00,
2013-06-04 04:43:00,50.4,42.4,29.83,WNW,291,0.0,0.0,74,0.00,,SKC,0.00,VWS V14.01,2013-06-04 08:43:00,
2013-06-04 04:44:00,50.2,41.9,29.84,WNW,288,0.0,0.0,73,0.00,,SKC,0.00,VWS V14.01,2013-06-04 08:44:00,
2013-06-04 04:45:00,50.2,41.9,29.84,WNW,288,0.0,0.0,73,0.00,,SKC,0.00,VWS V14.01,2013-06-04 08:45:00,
2013-06-04 04:48:00,50.2,41.5,29.84,North,357,0.0,3.0,72,0.00,,SKC,0.00,VWS V14.01,2013-06-04 08:48:00,
2013-06-04 04:49:00,50.2,41.9,29.84,North,356,0.0,3.0,73,0.00,,SKC,0.00,VWS V14.01,2013-06-04 08:49:00,
2013-06-04 04:50:00,50.2,41.9,29.84,North,357,0.0,3.0,73,0.00,,SKC,0.00,VWS V14.01,2013-06-04 08:50:00,
2013-06-04 04:51:00,50.2,41.9,29.84,North,357,0.0,0.0,73,0.00,,SKC,0.00,VWS V14.01,2013-06-04 08:51:00,
2013-06-04 04:53:00,50.1,42.8,29.84,North,357,0.0,0.0,76,0.00,,SKC,0.00,VWS V14.01,2013-06-04 08:53:00,
2013-06-04 04:54:00,50.1,42.8,29.84,North,356,0.0,0.0,76,0.00,,SKC,0.00,VWS V14.01,2013-06-04 08:54:00,
2013-06-04 04:55:00,50.1,42.5,29.84,North,357,0.0,0.0,75,0.00,,SKC,0.00,VWS V14.01,2013-06-04 08:55:00,
2013-06-04 04:56:00,49.9,42.3,29.84,North,356,0.0,0.0,75,0.00,,SKC,0.00,VWS V14.01,2013-06-04 08:56:00,
2013-06-04 04:58:00,49.9,43.3,29.84,North,356,0.0,0.0,78,0.00,,SKC,0.00,VWS V14.01,2013-06-04 08:58:00,
2013-06-04 04:59:00,49.9,43.3,29.84,North,357,0.0,0.0,78,0.00,,SKC,0.00,VWS V14.01,2013-06-04 08:59:00,
2013-06-04 05:00:00,49.8,43.2,29.84,North,356,0.0,0.0,78,0.00,,SKC,0.00,VWS V14.01,2013-06-04 09:00:00,
2013-06-04 05:01:00,49.8,43.2,29.84,North,356,0.0,0.0,78,0.00,,SKC,0.00,VWS V14.01,2013-06-04 09:01:00,
2013-06-04 05:04:00,49.6,42.0,29.84,North,354,0.0,0.0,75,0.00,,SKC,0.00,VWS V14.01,2013-06-04 09:04:00,
2013-06-04 05:05:00,49.6,41.7,29.84,North,354,0.0,0.0,74,0.00,,SKC,0.00,VWS V14.01,2013-06-04 09:05:00,
2013-06-04 05:06:00,49.6,41.7,29.84,North,354,0.0,0.0,74,0.00,,SKC,0.00,VWS V14.01,2013-06-04 09:06:00,
2013-06-04 05:07:00,49.6,41.7,29.84,North,354,0.0,0.0,74,0.00,,SKC,0.00,VWS V14.01,2013-06-04 09:07:00,
2013-06-04 05:09:00,49.6,41.7,29.84,NW,322,0.0,0.0,74,0.00,,SKC,0.00,VWS V14.01,2013-06-04 09:09:00,
2013-06-04 05:10:00,49.6,41.7,29.84,NW,320,0.0,0.0,74,0.00,,SKC,0.00,VWS V14.01,2013-06-04 09:10:00,
2013-06-04 05:11:00,49.6,41.7,29.84,NW,320,0.0,0.0,74,0.00,,SKC,0.00,VWS V14.01,2013-06-04 09:11:00,
2013-06-04 05:12:00,49.6,42.0,29.84,NW,322,0.0,0.0,75,0.00,,SKC,0.00,VWS V14.01,2013-06-04 09:12:00,
2013-06-04 05:14:00,49.8,42.5,29.84,NW,319,0.0,0.0,76,0.00,,SKC,0.00,VWS V14.01,2013-06-04 09:14:00,
2013-06-04 05:16:00,49.6,42.0,29.84,SSE,150,2.0,2.0,75,0.00,,SKC,0.00,VWS V14.01,2013-06-04 09:16:00,
2013-06-04 05:17:00,49.6,42.0,29.84,SSE,164,0.0,3.0,75,0.00,,SKC,0.00,VWS V14.01,2013-06-04 09:17:00,
2013-06-04 05:19:00,49.6,41.7,29.84,NNW,330,0.0,3.0,74,0.00,,SKC,0.00,VWS V14.01,2013-06-04 09:19:00,
2013-06-04 05:21:00,49.6,41.7,29.84,NNW,329,0.0,0.0,74,0.00,,SKC,0.00,VWS V14.01,2013-06-04 09:21:00,
2013-06-04 05:22:00,49.6,41.3,29.84,NNW,329,0.0,0.0,73,0.00,,SKC,0.00,VWS V14.01,2013-06-04 09:22:00,
2013-06-04 05:25:00,49.6,41.3,29.84,NNW,329,0.0,0.0,73,0.00,,SKC,0.00,VWS V14.01,2013-06-04 09:25:00,
2013-06-04 05:27:00,49.6,41.3,29.84,NNW,329,0.0,0.0,73,0.00,,SKC,0.00,VWS V14.01,2013-06-04 09:27:00,
2013-06-04 05:28:00,49.8,42.2,29.84,NNW,330,0.0,0.0,75,0.00,,SKC,0.00,VWS V14.01,2013-06-04 09:28:00,
2013-06-04 05:30:00,49.9,43.0,29.85,NNW,330,0.0,0.0,77,0.00,,SKC,0.00,VWS V14.01,2013-06-04 09:30:00,
2013-06-04 05:32:00,49.9,43.3,29.85,NNW,332,0.0,0.0,78,0.00,,SKC,0.00,VWS V14.01,2013-06-04 09:32:00,
2013-06-04 05:33:00,49.9,43.3,29.85,NNW,332,0.0,0.0,78,0.00,,SKC,0.00,VWS V14.01,2013-06-04 09:33:00,
2013-06-04 05:35:00,49.8,42.9,29.85,NNW,330,0.0,0.0,77,0.00,,SKC,0.00,VWS V14.01,2013-06-04 09:35:00,
2013-06-04 05:37:00,49.8,42.9,29.85,NNW,330,0.0,0.0,77,0.00,,SKC,0.00,VWS V14.01,2013-06-04 09:37:00,
2013-06-04 05:38:00,49.8,42.9,29.85,NNW,330,0.0,0.0,77,0.00,,SKC,0.00,VWS V14.01,2013-06-04 09:38:00,
2013-06-04 05:41:00,49.8,42.9,29.85,NNW,328,0.0,0.0,77,0.00,,SKC,0.00,VWS V14.01,2013-06-04 09:41:00,
2013-06-04 05:43:00,49.8,42.5,29.85,NNW,329,0.0,0.0,76,0.00,,SKC,0.00,VWS V14.01,2013-06-04 09:43:00,
2013-06-04 05:44:00,49.8,42.5,29.85,NNW,328,0.0,0.0,76,0.00,,SKC,0.00,VWS V14.01,2013-06-04 09:44:00,
2013-06-04 05:46:00,49.9,43.0,29.85,NNW,328,0.0,0.0,77,0.00,,SKC,0.00,VWS V14.01,2013-06-04 09:46:00,
2013-06-04 05:48:00,49.9,43.0,29.85,NW,326,0.0,0.0,77,0.00,,SKC,0.00,VWS V14.01,2013-06-04 09:48:00,
2013-06-04 05:49:00,49.9,42.7,29.85,NNW,328,0.0,0.0,76,0.00,,SKC,0.00,VWS V14.01,2013-06-04 09:49:00,
2013-06-04 05:52:00,50.1,42.8,29.85,NW,326,0.0,0.0,76,0.00,,SKC,0.00,VWS V14.01,2013-06-04 09:52:00,
2013-06-04 05:53:00,50.1,42.8,29.85,NW,326,0.0,0.0,76,0.00,,SKC,0.00,VWS V14.01,2013-06-04 09:53:00,
2013-06-04 05:54:00,50.1,42.8,29.85,NNW,329,0.0,0.0,76,0.00,,SKC,0.00,VWS V14.01,2013-06-04 09:54:00,
2013-06-04 05:57:00,50.2,43.3,29.85,NNW,329,0.0,0.0,77,0.00,,SKC,0.00,VWS V14.01,2013-06-04 09:57:00,
2013-06-04 05:58:00,50.2,42.6,29.85,NNW,329,0.0,0.0,75,0.00,,SKC,0.00,VWS V14.01,2013-06-04 09:58:00,
2013-06-04 05:59:00,50.4,43.1,29.86,NNW,328,0.0,0.0,76,0.00,,SKC,0.00,VWS V14.01,2013-06-04 09:59:00,
2013-06-04 06:00:00,50.4,43.1,29.86,NNW,328,0.0,0.0,76,0.00,,SKC,0.00,VWS V14.01,2013-06-04 10:00:00,
2013-06-04 06:02:00,50.5,43.6,29.86,NNW,329,0.0,0.0,77,0.00,,SKC,0.00,VWS V14.01,2013-06-04 10:02:00,
2013-06-04 06:03:00,50.5,43.6,29.86,NNW,328,0.0,0.0,77,0.00,,SKC,0.00,VWS V14.01,2013-06-04 10:03:00,
2013-06-04 06:05:00,50.5,43.9,29.86,NNW,328,0.0,0.0,78,0.00,,SKC,0.00,VWS V14.01,2013-06-04 10:05:00,
2013-06-04 06:08:00,50.5,43.9,29.86,NNW,328,0.0,0.0,78,0.00,,SKC,0.00,VWS V14.01,2013-06-04 10:08:00,
2013-06-04 06:10:00,50.7,44.1,29.86,NW,326,0.0,0.0,78,0.00,,SKC,0.00,VWS V14.01,2013-06-04 10:10:00,
2013-06-04 06:11:00,50.7,43.1,29.86,NNW,328,0.0,0.0,75,0.00,,SKC,0.00,VWS V14.01,2013-06-04 10:11:00,
2013-06-04 06:13:00,50.7,42.7,29.86,NW,326,0.0,0.0,74,0.00,,SKC,0.00,VWS V14.01,2013-06-04 10:13:00,
2013-06-04 06:14:00,50.7,42.7,29.86,NW,326,0.0,0.0,74,0.00,,SKC,0.00,VWS V14.01,2013-06-04 10:14:00,
2013-06-04 06:15:00,50.8,43.5,29.87,NNW,329,0.0,0.0,76,0.00,,SKC,0.00,VWS V14.01,2013-06-04 10:15:00,
2013-06-04 06:16:00,51.0,43.7,29.87,NNW,328,0.0,0.0,76,0.00,,SKC,0.00,VWS V14.01,2013-06-04 10:16:00,
2013-06-04 06:19:00,51.1,44.2,29.87,NW,325,0.0,0.0,77,0.00,,SKC,0.00,VWS V14.01,2013-06-04 10:19:00,
2013-06-04 06:21:00,51.3,44.3,29.87,WNW,298,4.0,4.0,77,0.00,,SKC,0.00,VWS V14.01,2013-06-04 10:21:00,
2013-06-04 06:22:00,51.3,44.3,29.87,WNW,301,0.0,4.0,77,0.00,,SKC,0.00,VWS V14.01,2013-06-04 10:22:00,
2013-06-04 06:24:00,51.4,43.4,29.87,WNW,295,0.0,4.0,74,0.00,,SKC,0.00,VWS V14.01,2013-06-04 10:24:00,
2013-06-04 06:27:00,51.6,42.9,29.87,WNW,298,0.0,0.0,72,0.00,,SKC,0.00,VWS V14.01,2013-06-04 10:27:00,
2013-06-04 06:28:00,51.7,43.0,29.87,NW,316,0.0,0.0,72,0.00,,SKC,0.00,VWS V14.01,2013-06-04 10:28:00,
2013-06-04 06:29:00,51.9,42.8,29.87,NW,316,0.0,0.0,71,0.00,,SKC,0.00,VWS V14.01,2013-06-04 10:29:00,
2013-06-04 06:32:00,52.3,44.3,29.87,NW,313,0.0,0.0,74,0.00,,SKC,0.00,VWS V14.01,2013-06-04 10:32:00,
2013-06-04 06:33:00,52.3,43.9,29.87,NW,312,0.0,0.0,73,0.00,,SKC,0.00,VWS V14.01,2013-06-04 10:33:00,
2013-06-04 06:34:00,52.5,44.1,29.87,NW,311,0.0,0.0,73,0.00,,SKC,0.00,VWS V14.01,2013-06-04 10:34:00,
2013-06-04 06:35:00,52.5,44.1,29.87,NNW,328,0.0,0.0,73,0.00,,SKC,0.00,VWS V14.01,2013-06-04 10:35:00,
2013-06-04 06:37:00,52.8,42.9,29.87,NW,326,0.0,0.0,69,0.00,,SKC,0.00,VWS V14.01,2013-06-04 10:37:00,
2013-06-04 06:39:00,52.9,42.6,29.87,SSE,155,1.0,1.0,68,0.00,,SKC,0.00,VWS V14.01,2013-06-04 10:39:00,
2013-06-04 06:40:00,53.1,42.8,29.87,SE,144,0.0,1.0,68,0.00,,SKC,0.00,VWS V14.01,2013-06-04 10:40:00,
2013-06-04 06:42:00,53.3,42.2,29.87,WNW,291,0.0,1.0,66,0.00,,SKC,0.00,VWS V14.01,2013-06-04 10:42:00,
2013-06-04 06:44:00,53.6,42.5,29.87,WNW,292,0.0,1.0,66,0.00,,SKC,0.00,VWS V14.01,2013-06-04 10:44:00,
2013-06-04 06:45:00,53.8,42.7,29.87,West,268,0.0,0.0,66,0.00,,SKC,0.00,VWS V14.01,2013-06-04 10:45:00,
2013-06-04 06:48:00,54.2,42.7,29.87,West,271,0.0,0.0,65,0.00,,SKC,0.00,VWS V14.01,2013-06-04 10:48:00,
2013-06-04 06:49:00,54.5,42.6,29.87,WSW,247,0.0,0.0,64,0.00,,SKC,0.00,VWS V14.01,2013-06-04 10:49:00,
2013-06-04 06:50:00,54.7,42.8,29.87,WSW,241,0.0,0.0,64,0.00,,SKC,0.00,VWS V14.01,2013-06-04 10:50:00,
2013-06-04 06:51:00,54.7,42.8,29.87,WSW,248,0.0,0.0,64,0.00,,SKC,0.00,VWS V14.01,2013-06-04 10:51:00,
2013-06-04 06:53:00,54.8,42.9,29.87,WSW,248,0.0,0.0,64,0.00,,SKC,0.00,VWS V14.01,2013-06-04 10:53:00,
2013-06-04 06:55:00,55.1,43.2,29.87,NNW,347,0.0,0.0,64,0.00,,SKC,0.00,VWS V14.01,2013-06-04 10:55:00,
2013-06-04 06:56:00,55.1,43.2,29.87,North,349,0.0,0.0,64,0.00,,SKC,0.00,VWS V14.01,2013-06-04 10:56:00,
2013-06-04 06:58:00,55.4,43.4,29.87,SSE,148,0.0,2.0,64,0.00,,SKC,0.00,VWS V14.01,2013-06-04 10:58:00,
2013-06-04 07:00:00,55.6,43.6,29.87,NW,319,1.0,2.0,64,0.00,,SKC,0.00,VWS V14.01,2013-06-04 11:00:00,
2013-06-04 07:02:00,55.7,43.3,29.87,North,350,3.0,5.0,63,0.00,,SKC,0.00,VWS V14.01,2013-06-04 11:02:00,
2013-06-04 07:03:00,55.7,42.9,29.87,North,350,5.0,6.0,62,0.00,,SKC,0.00,VWS V14.01,2013-06-04 11:03:00,
2013-06-04 07:04:00,55.7,42.9,29.87,SE,140,0.0,6.0,62,0.00,,SKC,0.00,VWS V14.01,2013-06-04 11:04:00,
2013-06-04 07:05:00,55.7,42.9,29.87,North,357,0.0,1.0,62,0.00,,SKC,0.00,VWS V14.01,2013-06-04 11:05:00,
2013-06-04 07:07:00,55.9,42.7,29.87,NNW,328,0.0,1.0,61,0.00,,SKC,0.00,VWS V14.01,2013-06-04 11:07:00,
2013-06-04 07:08:00,55.9,43.1,29.87,North,352,7.0,7.0,62,0.00,,SKC,0.00,VWS V14.01,2013-06-04 11:08:00,
2013-06-04 07:09:00,55.9,42.7,29.87,NNW,336,6.0,7.0,61,0.00,,SKC,0.00,VWS V14.01,2013-06-04 11:09:00,
2013-06-04 07:10:00,55.9,42.7,29.87,NNW,344,0.0,3.0,61,0.00,,SKC,0.00,VWS V14.01,2013-06-04 11:10:00,
2013-06-04 07:11:00,55.9,42.7,29.87,NNW,344,1.0,3.0,61,0.00,,SKC,0.00,VWS V14.01,2013-06-04 11:11:00,
2013-06-04 07:12:00,55.9,43.5,29.87,SE,137,2.0,3.0,63,0.00,,SKC,0.00,VWS V14.01,2013-06-04 11:12:00,
2013-06-04 07:14:00,55.9,43.5,29.87,SE,141,0.0,3.0,63,0.00,,SKC,0.00,VWS V14.01,2013-06-04 11:14:00,
2013-06-04 07:16:00,55.9,43.1,29.87,NNW,339,0.0,2.0,62,0.00,,SKC,0.00,VWS V14.01,2013-06-04 11:16:00,
2013-06-04 07:18:00,56.0,43.2,29.87,NNW,330,2.0,3.0,62,0.00,,SKC,0.00,VWS V14.01,2013-06-04 11:18:00,
2013-06-04 07:20:00,56.2,43.4,29.87,SE,131,0.0,0.0,62,0.00,,SKC,0.00,VWS V14.01,2013-06-04 11:20:00,
2013-06-04 07:22:00,56.3,43.5,29.87,SE,130,0.0,2.0,62,0.00,,SKC,0.00,VWS V14.01,2013-06-04 11:22:00,
2013-06-04 07:23:00,56.3,43.5,29.87,SE,141,3.0,3.0,62,0.00,,SKC,0.00,VWS V14.01,2013-06-04 11:23:00,
2013-06-04 07:25:00,56.6,44.2,29.87,NNW,337,1.0,2.0,63,0.00,,SKC,0.00,VWS V14.01,2013-06-04 11:25:00,
2013-06-04 07:27:00,56.7,43.8,29.87,North,356,2.0,2.0,62,0.00,,SKC,0.00,VWS V14.01,2013-06-04 11:27:00,
2013-06-04 07:28:00,56.7,43.8,29.87,North,356,2.0,2.0,62,0.00,,SKC,0.00,VWS V14.01,2013-06-04 11:28:00,
2013-06-04 07:30:00,56.9,44.5,29.87,North,357,0.0,0.0,63,0.00,,SKC,0.00,VWS V14.01,2013-06-04 11:30:00,
2013-06-04 07:33:00,57.0,44.1,29.87,SSE,161,0.0,3.0,62,0.00,,SKC,0.00,VWS V14.01,2013-06-04 11:33:00,
2013-06-04 07:34:00,57.2,44.3,29.87,North,357,3.0,3.0,62,0.00,,SKC,0.00,VWS V14.01,2013-06-04 11:34:00,
2013-06-04 07:36:00,57.2,43.5,29.87,SSE,151,0.0,0.0,60,0.00,,SKC,0.00,VWS V14.01,2013-06-04 11:36:00,
2013-06-04 07:38:00,57.5,43.3,29.87,NNW,339,0.0,3.0,59,0.00,,SKC,0.00,VWS V14.01,2013-06-04 11:38:00,
2013-06-04 07:39:00,57.5,43.3,29.87,NNW,340,0.0,3.0,59,0.00,,SKC,0.00,VWS V14.01,2013-06-04 11:39:00,
2013-06-04 07:41:00,57.8,44.5,29.87,NNW,339,1.0,1.0,61,0.00,,SKC,0.00,VWS V14.01,2013-06-04 11:41:00,
2013-06-04 07:43:00,58.0,43.3,29.87,North,349,2.0,2.0,58,0.00,,SKC,0.00,VWS V14.01,2013-06-04 11:43:00,
2013-06-04 07:44:00,58.0,43.3,29.87,NNW,344,1.0,3.0,58,0.00,,SKC,0.00,VWS V14.01,2013-06-04 11:44:00,
2013-06-04 07:46:00,58.1,43.9,29.88,South,179,1.0,2.0,59,0.00,,SKC,0.00,VWS V14.01,2013-06-04 11:46:00,
2013-06-04 07:49:00,58.3,43.6,29.88,South,181,0.0,2.0,58,0.00,,SKC,0.00,VWS V14.01,2013-06-04 11:49:00,
2013-06-04 07:50:00,58.4,43.7,29.88,South,179,0.0,2.0,58,0.00,,SKC,0.00,VWS V14.01,2013-06-04 11:50:00,
2013-06-04 07:52:00,58.6,43.9,29.88,NNW,339,2.0,3.0,58,0.00,,SKC,0.00,VWS V14.01,2013-06-04 11:52:00,
2013-06-04 07:54:00,58.7,43.5,29.88,SSE,157,0.0,3.0,57,0.00,,SKC,0.00,VWS V14.01,2013-06-04 11:54:00,
2013-06-04 07:55:00,58.9,43.7,29.88,SSE,155,0.0,3.0,57,0.00,,SKC,0.00,VWS V14.01,2013-06-04 11:55:00,
2013-06-04 07:57:00,58.7,43.1,29.88,West,264,0.0,2.0,56,0.00,,SKC,0.00,VWS V14.01,2013-06-04 11:57:00,
2013-06-04 07:59:00,58.7,44.4,29.88,SW,230,2.0,8.0,59,0.00,,SKC,0.00,VWS V14.01,2013-06-04 11:59:00,
2013-06-04 08:00:00,58.7,42.6,29.88,SW,233,2.0,8.0,55,0.00,,SKC,0.00,VWS V14.01,2013-06-04 12:00:00,
2013-06-04 08:02:00,58.9,42.8,29.88,NNW,332,2.0,6.0,55,0.00,,SKC,0.00,VWS V14.01,2013-06-04 12:02:00,
2013-06-04 08:05:00,58.9,43.2,29.88,North,353,0.0,6.0,56,0.00,,SKC,0.00,VWS V14.01,2013-06-04 12:05:00,
2013-06-04 08:06:00,58.9,43.2,29.88,SSE,161,7.0,11.0,56,0.00,,SKC,0.00,VWS V14.01,2013-06-04 12:06:00,
2013-06-04 08:08:00,58.9,41.3,29.88,SSW,196,0.0,11.0,52,0.00,,SKC,0.00,VWS V14.01,2013-06-04 12:08:00,
2013-06-04 08:10:00,58.9,42.3,29.88,SSE,150,3.0,11.0,54,0.00,,SKC,0.00,VWS V14.01,2013-06-04 12:10:00,
2013-06-04 08:11:00,58.9,42.3,29.88,NNW,346,2.0,4.0,54,0.00,,SKC,0.00,VWS V14.01,2013-06-04 12:11:00,
2013-06-04 08:13:00,59.0,41.9,29.88,North,352,0.0,10.0,53,0.00,,SKC,0.00,VWS V14.01,2013-06-04 12:13:00,
2013-06-04 08:15:00,59.0,41.9,29.87,SSE,148,5.0,11.0,53,0.00,,SKC,0.00,VWS V14.01,2013-06-04 12:15:00,
2013-06-04 08:16:00,59.0,42.4,29.87,West,281,0.0,5.0,54,0.00,,SKC,0.00,VWS V14.01,2013-06-04 12:16:00,
2013-06-04 08:17:00,59.2,42.6,29.87,NNW,339,2.0,6.0,54,0.00,,SKC,0.00,VWS V14.01,2013-06-04 12:17:00,
2013-06-04 08:18:00,59.2,42.6,29.87,NNW,347,5.0,7.0,54,0.00,,SKC,0.00,VWS V14.01,2013-06-04 12:18:00,
2013-06-04 08:20:00,59.3,43.2,29.87,SSE,167,2.0,7.0,55,0.00,,SKC,0.00,VWS V14.01,2013-06-04 12:20:00,
2013-06-04 08:21:00,59.5,42.4,29.87,SSE,155,1.0,6.0,53,0.00,,SKC,0.00,VWS V14.01,2013-06-04 12:21:00,
2013-06-04 08:22:00,59.5,42.4,29.87,SSE,167,1.0,6.0,53,0.00,,SKC,0.00,VWS V14.01,2013-06-04 12:22:00,
2013-06-04 08:24:00,59.8,43.6,29.87,SSE,151,3.0,6.0,55,0.00,,SKC,0.00,VWS V14.01,2013-06-04 12:24:00,
2013-06-04 08:25:00,59.8,43.6,29.87,SSE,151,3.0,3.0,55,0.00,,SKC,0.00,VWS V14.01,2013-06-04 12:25:00,
2013-06-04 08:26:00,59.9,44.7,29.87,SSE,150,0.0,3.0,57,0.00,,SKC,0.00,VWS V14.01,2013-06-04 12:26:00,
2013-06-04 08:27:00,60.1,43.4,29.87,SSE,161,1.0,5.0,54,0.00,,SKC,0.00,VWS V14.01,2013-06-04 12:27:00,
2013-06-04 08:29:00,60.2,43.5,29.87,North,356,0.0,5.0,54,0.00,,SKC,0.00,VWS V14.01,2013-06-04 12:29:00,
2013-06-04 08:30:00,60.2,44.0,29.87,SSE,151,1.0,5.0,55,0.00,,SKC,0.00,VWS V14.01,2013-06-04 12:30:00,
2013-06-04 08:32:00,60.4,43.2,29.87,SE,141,2.0,5.0,53,0.00,,SKC,0.00,VWS V14.01,2013-06-04 12:32:00,
2013-06-04 08:33:00,60.4,42.7,29.87,North,357,2.0,10.0,52,0.00,,SKC,0.00,VWS V14.01,2013-06-04 12:33:00,
2013-06-04 08:35:00,60.5,42.8,29.87,North,354,0.0,0.0,52,0.00,,SKC,0.00,VWS V14.01,2013-06-04 12:35:00,
2013-06-04 08:36:00,60.5,42.8,29.87,NW,319,1.0,1.0,52,0.00,,SKC,0.00,VWS V14.01,2013-06-04 12:36:00,
2013-06-04 08:37:00,60.5,42.3,29.87,NNW,347,1.0,3.0,51,0.00,,SKC,0.00,VWS V14.01,2013-06-04 12:37:00,
2013-06-04 08:39:00,60.7,42.5,29.87,SW,223,0.0,3.0,51,0.00,,SKC,0.00,VWS V14.01,2013-06-04 12:39:00,
2013-06-04 08:40:00,60.7,41.5,29.87,SW,230,0.0,0.0,49,0.00,,SKC,0.00,VWS V14.01,2013-06-04 12:40:00,
2013-06-04 08:41:00,60.7,42.0,29.87,West,265,2.0,3.0,50,0.00,,SKC,0.00,VWS V14.01,2013-06-04 12:41:00,
2013-06-04 08:42:00,60.5,41.8,29.87,NNW,344,2.0,9.0,50,0.00,,SKC,0.00,VWS V14.01,2013-06-04 12:42:00,
2013-06-04 08:44:00,60.7,42.5,29.87,SSE,148,3.0,9.0,51,0.00,,SKC,0.00,VWS V14.01,2013-06-04 12:44:00,
2013-06-04 08:45:00,60.7,42.5,29.88,SSE,155,6.0,6.0,51,0.00,,SKC,0.00,VWS V14.01,2013-06-04 12:45:00,
2013-06-04 08:47:00,60.9,44.2,29.88,SSE,152,0.0,6.0,54,0.00,,SKC,0.00,VWS V14.01,2013-06-04 12:47:00,
2013-06-04 08:48:00,60.9,43.2,29.88,SE,141,3.0,6.0,52,0.00,,SKC,0.00,VWS V14.01,2013-06-04 12:48:00,
2013-06-04 08:49:00,61.0,43.3,29.88,North,357,8.0,10.0,52,0.00,,SKC,0.00,VWS V14.01,2013-06-04 12:49:00,
2013-06-04 08:50:00,61.0,42.2,29.88,SSE,161,6.0,6.0,50,0.00,,SKC,0.00,VWS V14.01,2013-06-04 12:50:00,
2013-06-04 08:52:00,61.0,41.7,29.88,NNW,329,2.0,6.0,49,0.00,,SKC,0.00,VWS V14.01,2013-06-04 12:52:00,
2013-06-04 08:53:00,61.2,41.9,29.88,SSW,199,5.0,6.0,49,0.00,,SKC,0.00,VWS V14.01,2013-06-04 12:53:00,
2013-06-04 08:54:00,61.2,41.4,29.88,NW,322,4.0,7.0,48,0.00,,SKC,0.00,VWS V14.01,2013-06-04 12:54:00,
2013-06-04 08:56:00,61.0,41.2,29.88,NW,319,8.0,12.0,48,0.00,,SKC,0.00,VWS V14.01,2013-06-04 12:56:00,
2013-06-04 08:58:00,60.9,41.6,29.88,WSW,239,3.0,12.0,49,0.00,,SKC,0.00,VWS V14.01,2013-06-04 12:58:00,
2013-06-04 08:59:00,60.7,41.5,29.88,West,278,1.0,12.0,49,0.00,,SKC,0.00,VWS V14.01,2013-06-04 12:59:00,
2013-06-04 09:00:00,60.7,42.0,29.88,WNW,284,1.0,12.0,50,0.00,,SKC,0.00,VWS V14.01,2013-06-04 13:00:00,
2013-06-04 09:01:00,60.7,41.5,29.88,NW,313,5.0,5.0,49,0.00,,SKC,0.00,VWS V14.01,2013-06-04 13:01:00,
2013-06-04 09:03:00,60.9,41.6,29.88,NNW,344,2.0,5.0,49,0.00,,SKC,0.00,VWS V14.01,2013-06-04 13:03:00,
2013-06-04 09:05:00,61.0,42.2,29.88,SSE,164,5.0,7.0,50,0.00,,SKC,0.00,VWS V14.01,2013-06-04 13:05:00,
2013-06-04 09:06:00,61.0,42.2,29.88,NNW,330,0.0,6.0,50,0.00,,SKC,0.00,VWS V14.01,2013-06-04 13:06:00,
2013-06-04 09:09:00,61.0,42.8,29.88,North,357,2.0,6.0,51,0.00,,SKC,0.00,VWS V14.01,2013-06-04 13:09:00,
2013-06-04 09:10:00,61.0,43.3,29.88,SE,141,0.0,6.0,52,0.00,,SKC,0.00,VWS V14.01,2013-06-04 13:10:00,
2013-06-04 09:12:00,61.3,43.0,29.88,NNW,339,4.0,12.0,51,0.00,,SKC,0.00,VWS V14.01,2013-06-04 13:12:00,
2013-06-04 09:14:00,61.3,42.0,29.88,NNW,328,3.0,12.0,49,0.00,,SKC,0.00,VWS V14.01,2013-06-04 13:14:00,
2013-06-04 09:15:00,61.2,41.9,29.88,North,357,6.0,12.0,49,0.00,,SKC,0.00,VWS V14.01,2013-06-04 13:15:00,
2013-06-04 09:17:00,61.2,42.4,29.88,NW,318,2.0,7.0,50,0.00,,SKC,0.00,VWS V14.01,2013-06-04 13:17:00,
2013-06-04 09:19:00,61.2,41.9,29.88,WNW,294,2.0,8.0,49,0.00,,SKC,0.00,VWS V14.01,2013-06-04 13:19:00,
2013-06-04 09:20:00,61.2,42.4,29.88,SSE,165,5.0,8.0,50,0.00,,SKC,0.00,VWS V14.01,2013-06-04 13:20:00,
2013-06-04 09:21:00,61.2,40.8,29.88,SSE,164,2.0,13.0,47,0.00,,SKC,0.00,VWS V14.01,2013-06-04 13:21:00,
2013-06-04 09:22:00,61.2,40.8,29.88,SSE,164,7.0,13.0,47,0.00,,SKC,0.00,VWS V14.01,2013-06-04 13:22:00,
2013-06-04 09:25:00,61.2,40.8,29.88,NNW,335,5.0,13.0,47,0.00,,SKC,0.00,VWS V14.01,2013-06-04 13:25:00,
2013-06-04 09:26:00,61.2,40.8,29.88,SSE,161,4.0,5.0,47,0.00,,SKC,0.00,VWS V14.01,2013-06-04 13:26:00,
2013-06-04 09:27:00,61.2,41.9,29.88,South,178,1.0,6.0,49,0.00,,SKC,0.00,VWS V14.01,2013-06-04 13:27:00,
2013-06-04 09:30:00,61.3,42.5,29.88,South,169,0.0,0.0,50,0.00,,SKC,0.00,VWS V14.01,2013-06-04 13:30:00,
2013-06-04 09:31:00,61.3,43.0,29.88,SSE,151,0.0,2.0,51,0.00,,SKC,0.00,VWS V14.01,2013-06-04 13:31:00,
2013-06-04 09:32:00,61.3,43.0,29.88,SSE,151,0.0,2.0,51,0.00,,SKC,0.00,VWS V14.01,2013-06-04 13:32:00,
2013-06-04 09:35:00,61.3,42.0,29.88,NW,311,1.0,5.0,49,0.00,,SKC,0.00,VWS V14.01,2013-06-04 13:35:00,
2013-06-04 09:36:00,61.3,42.5,29.88,North,349,2.0,5.0,50,0.00,,SKC,0.00,VWS V14.01,2013-06-04 13:36:00,
2013-06-04 09:37:00,61.5,42.7,29.88,North,353,1.0,5.0,50,0.00,,SKC,0.00,VWS V14.01,2013-06-04 13:37:00,
2013-06-04 09:40:00,61.6,42.3,29.88,SSE,148,3.0,10.0,49,0.00,,SKC,0.00,VWS V14.01,2013-06-04 13:40:00,
2013-06-04 09:42:00,61.8,42.5,29.88,NNW,342,1.0,11.0,49,0.00,,SKC,0.00,VWS V14.01,2013-06-04 13:42:00,
2013-06-04 09:43:00,61.8,42.5,29.88,NNW,340,7.0,11.0,49,0.00,,SKC,0.00,VWS V14.01,2013-06-04 13:43:00,
2013-06-04 09:45:00,61.6,40.6,29.88,NNW,340,4.0,10.0,46,0.00,,SKC,0.00,VWS V14.01,2013-06-04 13:45:00,
2013-06-04 09:47:00,61.3,41.5,29.88,SE,145,7.0,12.0,48,0.00,,SKC,0.00,VWS V14.01,2013-06-04 13:47:00,
2013-06-04 09:48:00,61.3,41.5,29.88,North,352,9.0,12.0,48,0.00,,SKC,0.00,VWS V14.01,2013-06-04 13:48:00,
2013-06-04 09:50:00,61.2,40.8,29.88,SSE,157,1.0,6.0,47,0.00,,SKC,0.00,VWS V14.01,2013-06-04 13:50:00,
2013-06-04 09:52:00,61.2,40.8,29.88,NNW,342,3.0,12.0,47,0.00,,SKC,0.00,VWS V14.01,2013-06-04 13:52:00,
2013-06-04 09:53:00,61.2,40.8,29.88,NNW,340,4.0,12.0,47,0.00,,SKC,0.00,VWS V14.01,2013-06-04 13:53:00,
2013-06-04 09:54:00,61.3,40.9,29.88,SSE,152,3.0,12.0,47,0.00,,SKC,0.00,VWS V14.01,2013-06-04 13:54:00,
2013-06-04 09:56:00,61.3,40.9,29.88,SE,138,5.0,7.0,47,0.00,,SKC,0.00,VWS V14.01,2013-06-04 13:56:00,
2013-06-04 09:58:00,61.5,41.1,29.88,SSE,152,8.0,11.0,47,0.00,,SKC,0.00,VWS V14.01,2013-06-04 13:58:00,
2013-06-04 09:59:00,61.5,41.1,29.88,NNW,346,2.0,11.0,47,0.00,,SKC,0.00,VWS V14.01,2013-06-04 13:59:00,
2013-06-04 10:01:00,61.6,41.7,29.88,NNW,343,1.0,2.0,48,0.00,,SKC,0.00,VWS V14.01,2013-06-04 14:01:00,
2013-06-04 10:03:00,61.6,42.3,29.88,SSE,154,5.0,7.0,49,0.00,,SKC,0.00,VWS V14.01,2013-06-04 14:03:00,
2013-06-04 10:04:00,61.8,42.5,29.88,WSW,254,2.0,7.0,49,0.00,,SKC,0.00,VWS V14.01,2013-06-04 14:04:00,
2013-06-04 10:07:00,62.0,43.2,29.88,SSE,147,3.0,3.0,50,0.00,,SKC,0.00,VWS V14.01,2013-06-04 14:07:00,
2013-06-04 10:08:00,62.1,43.3,29.88,NNW,339,1.0,3.0,50,0.00,,SKC,0.00,VWS V14.01,2013-06-04 14:08:00,
2013-06-04 10:10:00,62.4,43.5,29.88,WNW,287,1.0,3.0,50,0.00,,SKC,0.00,VWS V14.01,2013-06-04 14:10:00,
2013-06-04 10:12:00,62.6,42.7,29.88,NNW,336,8.0,8.0,48,0.00,,SKC,0.00,VWS V14.01,2013-06-04 14:12:00,
2013-06-04 10:13:00,62.6,42.1,29.88,SE,141,4.0,8.0,47,0.00,,SKC,0.00,VWS V14.01,2013-06-04 14:13:00,
2013-06-04 10:14:00,62.7,42.2,29.88,SSE,154,2.0,8.0,47,0.00,,SKC,0.00,VWS V14.01,2013-06-04 14:14:00,
2013-06-04 10:15:00,62.7,42.2,29.88,NNW,328,3.0,4.0,47,0.00,,SKC,0.00,VWS V14.01,2013-06-04 14:15:00,
2013-06-04 10:17:00,62.9,44.0,29.88,NW,312,1.0,4.0,50,0.00,,SKC,0.00,VWS V14.01,2013-06-04 14:17:00,
2013-06-04 10:19:00,63.1,44.2,29.88,SE,143,0.0,4.0,50,0.00,,SKC,0.00,VWS V14.01,2013-06-04 14:19:00,
2013-06-04 10:20:00,63.2,43.7,29.88,SE,145,0.0,4.0,49,0.00,,SKC,0.00,VWS V14.01,2013-06-04 14:20:00,
2013-06-04 10:24:00,63.7,42.0,29.88,NNW,337,11.0,11.0,45,0.00,,SKC,0.00,VWS V14.01,2013-06-04 14:24:00,
2013-06-04 10:25:00,63.7,42.5,29.88,North,352,0.0,6.0,46,0.00,,SKC,0.00,VWS V14.01,2013-06-04 14:25:00,
2013-06-04 10:26:00,63.7,42.5,29.88,North,350,2.0,6.0,46,0.00,,SKC,0.00,VWS V14.01,2013-06-04 14:26:00,
2013-06-04 10:29:00,63.7,41.4,29.88,SSE,158,0.0,7.0,44,0.00,,SKC,0.00,VWS V14.01,2013-06-04 14:29:00,
2013-06-04 10:30:00,63.7,43.1,29.89,SSE,148,2.0,7.0,47,0.00,,SKC,0.00,VWS V14.01,2013-06-04 14:30:00,
2013-06-04 10:31:00,63.9,42.7,29.89,SE,140,0.0,5.0,46,0.00,,SKC,0.00,VWS V14.01,2013-06-04 14:31:00,
2013-06-04 10:32:00,63.9,42.7,29.89,SE,138,0.0,5.0,46,0.00,,SKC,0.00,VWS V14.01,2013-06-04 14:32:00,
2013-06-04 10:34:00,64.0,42.8,29.89,West,267,1.0,5.0,46,0.00,,SKC,0.00,VWS V14.01,2013-06-04 14:34:00,
2013-06-04 10:35:00,64.0,42.8,29.89,West,267,2.0,5.0,46,0.00,,SKC,0.00,VWS V14.01,2013-06-04 14:35:00,
2013-06-04 10:37:00,64.0,42.3,29.89,WSW,251,0.0,5.0,45,0.00,,SKC,0.00,VWS V14.01,2013-06-04 14:37:00,
2013-06-04 10:39:00,64.0,41.7,29.89,SE,140,1.0,5.0,44,0.00,,SKC,0.00,VWS V14.01,2013-06-04 14:39:00,
2013-06-04 10:40:00,64.2,44.1,29.89,SE,141,1.0,2.0,48,0.00,,SKC,0.00,VWS V14.01,2013-06-04 14:40:00,
2013-06-04 10:42:00,64.3,42.5,29.89,South,188,0.0,5.0,45,0.00,,SKC,0.00,VWS V14.01,2013-06-04 14:42:00,
2013-06-04 10:44:00,64.3,42.5,29.89,NW,304,1.0,6.0,45,0.00,,SKC,0.00,VWS V14.01,2013-06-04 14:44:00,
2013-06-04 10:45:00,64.2,42.4,29.89,WNW,302,1.0,6.0,45,0.00,,SKC,0.00,VWS V14.01,2013-06-04 14:45:00,
2013-06-04 10:47:00,64.3,42.5,29.89,North,352,4.0,7.0,45,0.00,,SKC,0.00,VWS V14.01,2013-06-04 14:47:00,
2013-06-04 10:48:00,64.3,42.5,29.89,North,352,1.0,7.0,45,0.00,,SKC,0.00,VWS V14.01,2013-06-04 14:48:00,
2013-06-04 10:49:00,64.3,41.3,29.89,WSW,258,2.0,7.0,43,0.00,,SKC,0.00,VWS V14.01,2013-06-04 14:49:00,
2013-06-04 10:50:00,64.3,41.3,29.89,WSW,253,0.0,1.0,43,0.00,,SKC,0.00,VWS V14.01,2013-06-04 14:50:00,
2013-06-04 10:52:00,64.5,42.1,29.89,North,356,8.0,8.0,44,0.00,,SKC,0.00,VWS V14.01,2013-06-04 14:52:00,
2013-06-04 10:53:00,64.5,42.1,29.89,SSE,158,3.0,8.0,44,0.00,,SKC,0.00,VWS V14.01,2013-06-04 14:53:00,
2013-06-04 10:55:00,64.7,42.3,29.89,NNW,328,6.0,8.0,44,0.00,,SKC,0.00,VWS V14.01,2013-06-04 14:55:00,
2013-06-04 10:59:00,64.8,43.0,29.89,North,356,3.0,7.0,45,0.00,,SKC,0.00,VWS V14.01,2013-06-04 14:59:00,
2013-06-04 11:00:00,65.0,42.6,29.88,NNW,329,2.0,5.0,44,0.00,,SKC,0.00,VWS V14.01,2013-06-04 15:00:00,
2013-06-04 11:01:00,65.0,42.6,29.88,NW,326,2.0,5.0,44,0.00,,SKC,0.00,VWS V14.01,2013-06-04 15:01:00,
2013-06-04 11:05:00,65.3,42.2,29.88,North,350,5.0,5.0,43,0.00,,SKC,0.00,VWS V14.01,2013-06-04 15:05:00,
2013-06-04 11:06:00,65.5,42.4,29.88,NNW,336,4.0,8.0,43,0.00,,SKC,0.00,VWS V14.01,2013-06-04 15:06:00,
2013-06-04 11:10:00,65.5,41.2,29.88,NNW,339,3.0,3.0,41,0.00,,SKC,0.00,VWS V14.01,2013-06-04 15:10:00,
2013-06-04 11:11:00,65.5,41.2,29.88,North,356,2.0,5.0,41,0.00,,SKC,0.00,VWS V14.01,2013-06-04 15:11:00,
2013-06-04 11:15:00,65.5,43.0,29.88,North,353,4.0,10.0,44,0.00,,SKC,0.00,VWS V14.01,2013-06-04 15:15:00,
2013-06-04 11:16:00,65.5,43.0,29.88,SE,138,7.0,10.0,44,0.00,,SKC,0.00,VWS V14.01,2013-06-04 15:16:00,
2013-06-04 11:17:00,65.5,40.6,29.88,SSE,148,1.0,10.0,40,0.00,,SKC,0.00,VWS V14.01,2013-06-04 15:17:00,
2013-06-04 11:20:00,65.5,41.8,29.88,North,349,2.0,2.0,42,0.00,,SKC,0.00,VWS V14.01,2013-06-04 15:20:00,
2013-06-04 11:21:00,65.6,41.9,29.88,NNW,342,2.0,4.0,42,0.00,,SKC,0.00,VWS V14.01,2013-06-04 15:21:00,
2013-06-04 11:22:00,65.6,41.9,29.88,SSE,158,2.0,4.0,42,0.00,,SKC,0.00,VWS V14.01,2013-06-04 15:22:00,
2013-06-04 11:23:00,65.8,43.3,29.88,West,264,2.0,4.0,44,0.00,,SKC,0.00,VWS V14.01,2013-06-04 15:23:00,
2013-06-04 11:25:00,66.0,42.9,29.88,NNW,347,2.0,5.0,43,0.00,,SKC,0.00,VWS V14.01,2013-06-04 15:25:00,
2013-06-04 11:27:00,66.0,42.9,29.88,NNW,335,3.0,5.0,43,0.00,,SKC,0.00,VWS V14.01,2013-06-04 15:27:00,
2013-06-04 11:28:00,66.1,42.4,29.88,NNW,337,8.0,8.0,42,0.00,,SKC,0.00,VWS V14.01,2013-06-04 15:28:00,
2013-06-04 11:30:00,66.1,42.4,29.89,NNW,343,4.0,4.0,42,0.00,,SKC,0.00,VWS V14.01,2013-06-04 15:30:00,
2013-06-04 11:32:00,66.1,42.4,29.89,NW,316,2.0,4.0,42,0.00,,SKC,0.00,VWS V14.01,2013-06-04 15:32:00,
2013-06-04 11:33:00,66.1,42.4,29.89,SSE,151,3.0,4.0,42,0.00,,SKC,0.00,VWS V14.01,2013-06-04 15:33:00,
2013-06-04 11:34:00,66.3,41.3,29.89,SE,138,1.0,5.0,40,0.00,,SKC,0.00,VWS V14.01,2013-06-04 15:34:00,
2013-06-04 11:36:00,66.3,42.5,29.89,West,267,1.0,3.0,42,0.00,,SKC,0.00,VWS V14.01,2013-06-04 15:36:00,
2013-06-04 11:37:00,66.3,42.5,29.89,SSE,162,2.0,7.0,42,0.00,,SKC,0.00,VWS V14.01,2013-06-04 15:37:00,
2013-06-04 11:38:00,66.4,42.6,29.89,SE,141,1.0,7.0,42,0.00,,SKC,0.00,VWS V14.01,2013-06-04 15:38:00,
2013-06-04 11:39:00,66.4,42.6,29.89,WSW,240,2.0,7.0,42,0.00,,SKC,0.00,VWS V14.01,2013-06-04 15:39:00,
2013-06-04 11:42:00,66.6,42.8,29.89,SW,227,0.0,3.0,42,0.00,,SKC,0.00,VWS V14.01,2013-06-04 15:42:00,
2013-06-04 11:43:00,66.3,42.5,29.89,NNW,328,1.0,12.0,42,0.00,,SKC,0.00,VWS V14.01,2013-06-04 15:43:00,
2013-06-04 11:44:00,66.3,42.5,29.89,North,354,0.0,12.0,42,0.00,,SKC,0.00,VWS V14.01,2013-06-04 15:44:00,
2013-06-04 11:47:00,66.3,42.5,29.89,SSE,167,5.0,10.0,42,0.00,,SKC,0.00,VWS V14.01,2013-06-04 15:47:00,
2013-06-04 11:48:00,66.3,40.6,29.89,NW,323,7.0,10.0,39,0.00,,SKC,0.00,VWS V14.01,2013-06-04 15:48:00,
2013-06-04 11:49:00,66.1,40.5,29.89,SSE,157,3.0,10.0,39,0.00,,SKC,0.00,VWS V14.01,2013-06-04 15:49:00,
2013-06-04 11:50:00,66.1,40.5,29.89,SE,145,2.0,10.0,39,0.00,,SKC,0.00,VWS V14.01,2013-06-04 15:50:00,
2013-06-04 11:52:00,66.1,43.0,29.89,SSE,147,8.0,10.0,43,0.00,,SKC,0.00,VWS V14.01,2013-06-04 15:52:00,
2013-06-04 11:54:00,66.0,41.7,29.89,North,357,0.0,10.0,41,0.00,,SKC,0.00,VWS V14.01,2013-06-04 15:54:00,
2013-06-04 11:55:00,66.1,42.4,29.89,SE,141,0.0,0.0,42,0.00,,SKC,0.00,VWS V14.01,2013-06-04 15:55:00,
2013-06-04 11:57:00,66.0,41.7,29.89,SSE,148,5.0,10.0,41,0.00,,SKC,0.00,VWS V14.01,2013-06-04 15:57:00,
2013-06-04 11:59:00,65.8,41.5,29.89,NW,326,0.0,10.0,41,0.00,,SKC,0.00,VWS V14.01,2013-06-04 15:59:00,
2013-06-04 12:00:00,65.8,41.5,29.90,SW,226,1.0,1.0,41,0.00,,SKC,0.00,VWS V14.01,2013-06-04 16:00:00,
2013-06-04 12:02:00,65.6,43.1,29.90,NW,318,2.0,6.0,44,0.00,,SKC,0.00,VWS V14.01,2013-06-04 16:02:00,
2013-06-04 12:04:00,65.8,42.7,29.90,West,268,0.0,6.0,43,0.00,,SKC,0.00,VWS V14.01,2013-06-04 16:04:00,
2013-06-04 12:06:00,66.0,42.9,29.90,West,261,0.0,5.0,43,0.00,,SKC,0.00,VWS V14.01,2013-06-04 16:06:00,
2013-06-04 12:08:00,66.1,43.6,29.90,North,357,3.0,5.0,44,0.00,,SKC,0.00,VWS V14.01,2013-06-04 16:08:00,
2013-06-04 12:09:00,66.4,43.8,29.90,South,188,0.0,5.0,44,0.00,,SKC,0.00,VWS V14.01,2013-06-04 16:09:00,
2013-06-04 12:10:00,66.6,44.6,29.90,NNW,333,1.0,5.0,45,0.00,,SKC,0.00,VWS V14.01,2013-06-04 16:10:00,
2013-06-04 12:11:00,66.6,42.8,29.90,SW,232,0.0,5.0,42,0.00,,SKC,0.00,VWS V14.01,2013-06-04 16:11:00,
2013-06-04 12:13:00,66.8,43.0,29.90,NNW,339,3.0,5.0,42,0.00,,SKC,0.00,VWS V14.01,2013-06-04 16:13:00,
2013-06-04 12:15:00,66.8,43.0,29.89,NW,316,0.0,0.0,42,0.00,,SKC,0.00,VWS V14.01,2013-06-04 16:15:00,
2013-06-04 12:17:00,66.8,43.0,29.89,SE,141,1.0,3.0,42,0.00,,SKC,0.00,VWS V14.01,2013-06-04 16:17:00,
2013-06-04 12:19:00,66.8,44.2,29.89,West,260,0.0,3.0,44,0.00,,SKC,0.00,VWS V14.01,2013-06-04 16:19:00,
2013-06-04 12:20:00,66.8,44.2,29.89,South,178,0.0,2.0,44,0.00,,SKC,0.00,VWS V14.01,2013-06-04 16:20:00,
2013-06-04 12:21:00,66.8,43.0,29.89,NNW,339,3.0,7.0,42,0.00,,SKC,0.00,VWS V14.01,2013-06-04 16:21:00,
2013-06-04 12:22:00,66.8,42.4,29.89,North,352,1.0,7.0,41,0.00,,SKC,0.00,VWS V14.01,2013-06-04 16:22:00,
2013-06-04 12:24:00,66.6,42.2,29.89,SE,128,5.0,10.0,41,0.00,,SKC,0.00,VWS V14.01,2013-06-04 16:24:00,
2013-06-04 12:25:00,66.6,42.2,29.89,SE,137,2.0,2.0,41,0.00,,SKC,0.00,VWS V14.01,2013-06-04 16:25:00,
2013-06-04 12:27:00,66.4,42.0,29.89,SSE,150,3.0,3.0,41,0.00,,SKC,0.00,VWS V14.01,2013-06-04 16:27:00,
2013-06-04 12:29:00,66.3,43.2,29.90,WNW,285,0.0,3.0,43,0.00,,SKC,0.00,VWS V14.01,2013-06-04 16:29:00,
2013-06-04 12:30:00,66.3,44.9,29.90,North,353,3.0,5.0,46,0.00,,SKC,0.00,VWS V14.01,2013-06-04 16:30:00,
2013-06-04 12:32:00,66.3,44.3,29.90,North,349,7.0,8.0,45,0.00,,SKC,0.00,VWS V14.01,2013-06-04 16:32:00,
2013-06-04 12:33:00,66.3,44.3,29.90,SSE,155,2.0,8.0,45,0.00,,SKC,0.00,VWS V14.01,2013-06-04 16:33:00,
2013-06-04 12:34:00,66.3,44.9,29.90,NNW,346,1.0,8.0,46,0.00,,SKC,0.00,VWS V14.01,2013-06-04 16:34:00,
2013-06-04 12:35:00,66.3,44.9,29.90,WNW,292,1.0,2.0,46,0.00,,SKC,0.00,VWS V14.01,2013-06-04 16:35:00,
2013-06-04 12:37:00,66.4,44.4,29.90,NW,316,7.0,7.0,45,0.00,,SKC,0.00,VWS V14.01,2013-06-04 16:37:00,
2013-06-04 12:38:00,66.4,43.8,29.90,SSE,152,3.0,7.0,44,0.00,,SKC,0.00,VWS V14.01,2013-06-04 16:38:00,
2013-06-04 12:39:00,66.6,44.0,29.90,WNW,301,5.0,7.0,44,0.00,,SKC,0.00,VWS V14.01,2013-06-04 16:39:00,
2013-06-04 12:41:00,66.8,43.6,29.90,NNW,344,8.0,8.0,43,0.00,,SKC,0.00,VWS V14.01,2013-06-04 16:41:00,
2013-06-04 12:42:00,66.8,43.0,29.90,NNW,347,4.0,8.0,42,0.00,,SKC,0.00,VWS V14.01,2013-06-04 16:42:00,
2013-06-04 12:43:00,66.8,43.0,29.90,WNW,285,2.0,8.0,42,0.00,,SKC,0.00,VWS V14.01,2013-06-04 16:43:00,
2013-06-04 12:44:00,66.8,42.4,29.90,North,357,2.0,11.0,41,0.00,,SKC,0.00,VWS V14.01,2013-06-04 16:44:00,
2013-06-04 12:45:00,66.8,42.4,29.90,SSE,151,5.0,11.0,41,0.00,,SKC,0.00,VWS V14.01,2013-06-04 16:45:00,
2013-06-04 12:47:00,66.8,42.4,29.90,NNW,336,1.0,5.0,41,0.00,,SKC,0.00,VWS V14.01,2013-06-04 16:47:00,
2013-06-04 12:48:00,66.8,43.0,29.90,SSE,148,3.0,5.0,42,0.00,,SKC,0.00,VWS V14.01,2013-06-04 16:48:00,
2013-06-04 12:49:00,66.6,42.8,29.90,NNW,344,0.0,5.0,42,0.00,,SKC,0.00,VWS V14.01,2013-06-04 16:49:00,
2013-06-04 12:50:00,66.6,42.8,29.90,NNW,342,2.0,4.0,42,0.00,,SKC,0.00,VWS V14.01,2013-06-04 16:50:00,
2013-06-04 12:52:00,66.6,42.8,29.90,North,353,0.0,4.0,42,0.00,,SKC,0.00,VWS V14.01,2013-06-04 16:52:00,
2013-06-04 12:53:00,66.6,42.8,29.90,SSE,161,1.0,4.0,42,0.00,,SKC,0.00,VWS V14.01,2013-06-04 16:53:00,
2013-06-04 12:55:00,66.6,42.8,29.90,SSW,202,1.0,4.0,42,0.00,,SKC,0.00,VWS V14.01,2013-06-04 16:55:00,
2013-06-04 12:57:00,66.4,42.6,29.90,SSE,162,3.0,13.0,42,0.00,,SKC,0.00,VWS V14.01,2013-06-04 16:57:00,
2013-06-04 12:58:00,66.6,43.4,29.90,SE,140,5.0,13.0,43,0.00,,SKC,0.00,VWS V14.01,2013-06-04 16:58:00,
2013-06-04 13:00:00,66.6,43.4,29.90,North,356,8.0,13.0,43,0.00,,SKC,0.00,VWS V14.01,2013-06-04 17:00:00,
2013-06-04 13:02:00,66.8,43.6,29.90,West,280,0.0,8.0,43,0.00,,SKC,0.00,VWS V14.01,2013-06-04 17:02:00,
2013-06-04 13:03:00,66.8,43.6,29.90,North,353,5.0,8.0,43,0.00,,SKC,0.00,VWS V14.01,2013-06-04 17:03:00,
2013-06-04 13:05:00,66.8,44.8,29.90,SSE,154,8.0,8.0,45,0.00,,SKC,0.00,VWS V14.01,2013-06-04 17:05:00,
2013-06-04 13:07:00,66.8,43.0,29.90,SSE,160,6.0,8.0,42,0.00,,SKC,0.00,VWS V14.01,2013-06-04 17:07:00,
2013-06-04 13:08:00,66.8,43.0,29.90,SSE,160,6.0,8.0,42,0.00,,SKC,0.00,VWS V14.01,2013-06-04 17:08:00,
2013-06-04 13:09:00,66.6,42.8,29.90,SE,144,1.0,8.0,42,0.00,,SKC,0.00,VWS V14.01,2013-06-04 17:09:00,
2013-06-04 13:10:00,66.6,42.8,29.90,NNW,346,0.0,0.0,42,0.00,,SKC,0.00,VWS V14.01,2013-06-04 17:10:00,
2013-06-04 13:12:00,66.6,43.4,29.90,West,268,0.0,7.0,43,0.00,,SKC,0.00,VWS V14.01,2013-06-04 17:12:00,
2013-06-04 13:13:00,66.6,43.4,29.90,West,265,0.0,7.0,43,0.00,,SKC,0.00,VWS V14.01,2013-06-04 17:13:00,
2013-06-04 13:14:00,66.6,45.2,29.89,West,265,0.0,7.0,46,0.00,,SKC,0.00,VWS V14.01,2013-06-04 17:14:00,
2013-06-04 13:17:00,66.6,43.4,29.89,NW,311,1.0,3.0,43,0.00,,SKC,0.00,VWS V14.01,2013-06-04 17:17:00,
2013-06-04 13:18:00,66.6,43.4,29.89,SE,141,1.0,3.0,43,0.00,,SKC,0.00,VWS V14.01,2013-06-04 17:18:00,
2013-06-04 13:19:00,66.8,43.6,29.89,NNW,335,2.0,3.0,43,0.00,,SKC,0.00,VWS V14.01,2013-06-04 17:19:00,
2013-06-04 13:20:00,66.9,43.7,29.89,SE,141,5.0,5.0,43,0.00,,SKC,0.00,VWS V14.01,2013-06-04 17:20:00,
2013-06-04 13:22:00,67.3,43.5,29.89,North,356,2.0,6.0,42,0.00,,SKC,0.00,VWS V14.01,2013-06-04 17:22:00,
2013-06-04 13:23:00,67.3,43.5,29.89,WNW,298,2.0,6.0,42,0.00,,SKC,0.00,VWS V14.01,2013-06-04 17:23:00,
2013-06-04 13:25:00,67.4,43.5,29.89,WNW,292,0.0,6.0,42,0.00,,SKC,0.00,VWS V14.01,2013-06-04 17:25:00,
2013-06-04 13:27:00,67.6,41.8,29.89,SSE,168,2.0,7.0,39,0.00,,SKC,0.00,VWS V14.01,2013-06-04 17:27:00,
2013-06-04 13:28:00,67.8,43.3,29.89,SSE,167,0.0,7.0,41,0.00,,SKC,0.00,VWS V14.01,2013-06-04 17:28:00,
2013-06-04 13:30:00,67.8,43.3,29.89,North,357,1.0,8.0,41,0.00,,SKC,0.00,VWS V14.01,2013-06-04 17:30:00,
2013-06-04 13:32:00,68.3,44.3,29.89,NW,322,4.0,6.0,42,0.00,,SKC,0.00,VWS V14.01,2013-06-04 17:32:00,
2013-06-04 13:33:00,68.3,44.3,29.89,NNW,330,5.0,7.0,42,0.00,,SKC,0.00,VWS V14.01,2013-06-04 17:33:00,
2013-06-04 13:35:00,68.4,41.8,29.89,North,352,3.0,10.0,38,0.00,,SKC,0.00,VWS V14.01,2013-06-04 17:35:00,
2013-06-04 13:36:00,68.4,41.8,29.89,WSW,248,2.0,10.0,38,0.00,,SKC,0.00,VWS V14.01,2013-06-04 17:36:00,
2013-06-04 13:38:00,68.6,42.7,29.89,SSE,157,3.0,10.0,39,0.00,,SKC,0.00,VWS V14.01,2013-06-04 17:38:00,
2013-06-04 13:39:00,68.6,42.7,29.89,WNW,285,1.0,10.0,39,0.00,,SKC,0.00,VWS V14.01,2013-06-04 17:39:00,
2013-06-04 13:40:00,68.8,40.8,29.89,SE,143,1.0,1.0,36,0.00,,SKC,0.00,VWS V14.01,2013-06-04 17:40:00,
2013-06-04 13:41:00,68.8,42.2,29.89,NNW,332,1.0,5.0,38,0.00,,SKC,0.00,VWS V14.01,2013-06-04 17:41:00,
2013-06-04 13:44:00,68.9,40.9,29.89,North,349,0.0,6.0,36,0.00,,SKC,0.00,VWS V14.01,2013-06-04 17:44:00,
2013-06-04 13:45:00,68.9,42.3,29.89,North,352,2.0,2.0,38,0.00,,SKC,0.00,VWS V14.01,2013-06-04 17:45:00,
2013-06-04 13:47:00,68.9,42.3,29.89,SE,144,2.0,3.0,38,0.00,,SKC,0.00,VWS V14.01,2013-06-04 17:47:00,
2013-06-04 13:49:00,68.9,43.0,29.89,North,356,2.0,7.0,39,0.00,,SKC,0.00,VWS V14.01,2013-06-04 17:49:00,
2013-06-04 13:50:00,68.9,41.6,29.89,North,357,2.0,11.0,37,0.00,,SKC,0.00,VWS V14.01,2013-06-04 17:50:00,
2013-06-04 13:51:00,68.9,41.6,29.89,WSW,243,3.0,11.0,37,0.00,,SKC,0.00,VWS V14.01,2013-06-04 17:51:00,
2013-06-04 13:52:00,68.9,42.3,29.89,NNW,339,1.0,11.0,38,0.00,,SKC,0.00,VWS V14.01,2013-06-04 17:52:00,
2013-06-04 13:54:00,68.9,40.9,29.89,West,275,0.0,11.0,36,0.00,,SKC,0.00,VWS V14.01,2013-06-04 17:54:00,
2013-06-04 13:55:00,68.9,40.9,29.89,West,278,0.0,11.0,36,0.00,,SKC,0.00,VWS V14.01,2013-06-04 17:55:00,
2013-06-04 13:56:00,68.9,40.9,29.89,SW,234,5.0,5.0,36,0.00,,SKC,0.00,VWS V14.01,2013-06-04 17:56:00,
2013-06-04 13:57:00,68.9,40.9,29.89,SE,141,1.0,5.0,36,0.00,,SKC,0.00,VWS V14.01,2013-06-04 17:57:00,
2013-06-04 14:00:00,69.3,42.6,29.89,North,354,7.0,7.0,38,0.00,,SKC,0.00,VWS V14.01,2013-06-04 18:00:00,
2013-06-04 14:01:00,69.3,41.2,29.89,NNW,330,6.0,8.0,36,0.00,,SKC,0.00,VWS V14.01,2013-06-04 18:01:00,
2013-06-04 14:02:00,69.3,41.2,29.89,NNW,347,2.0,8.0,36,0.00,,SKC,0.00,VWS V14.01,2013-06-04 18:02:00,
2013-06-04 14:05:00,68.9,40.2,29.89,North,356,6.0,6.0,35,0.00,,SKC,0.00,VWS V14.01,2013-06-04 18:05:00,
2013-06-04 14:07:00,68.8,41.5,29.89,NNW,330,5.0,13.0,37,0.00,,SKC,0.00,VWS V14.01,2013-06-04 18:07:00,
2013-06-04 14:08:00,68.8,41.5,29.89,SSW,199,1.0,13.0,37,0.00,,SKC,0.00,VWS V14.01,2013-06-04 18:08:00,
2013-06-04 14:11:00,68.8,42.2,29.89,SE,137,1.0,7.0,38,0.00,,SKC,0.00,VWS V14.01,2013-06-04 18:11:00,
2013-06-04 14:12:00,68.9,42.3,29.89,NNW,342,2.0,7.0,38,0.00,,SKC,0.00,VWS V14.01,2013-06-04 18:12:00,
2013-06-04 14:13:00,68.9,42.3,29.89,NNW,342,2.0,7.0,38,0.00,,SKC,0.00,VWS V14.01,2013-06-04 18:13:00,
2013-06-04 14:17:00,69.1,41.8,29.90,SE,145,1.0,3.0,37,0.00,,SKC,0.00,VWS V14.01,2013-06-04 18:17:00,
2013-06-04 14:18:00,69.1,42.5,29.90,SE,145,1.0,3.0,38,0.00,,SKC,0.00,VWS V14.01,2013-06-04 18:18:00,
2013-06-04 14:22:00,69.3,42.6,29.90,SSE,158,1.0,5.0,38,0.00,,SKC,0.00,VWS V14.01,2013-06-04 18:22:00,
2013-06-04 14:23:00,69.3,42.6,29.90,SSE,147,6.0,6.0,38,0.00,,SKC,0.00,VWS V14.01,2013-06-04 18:23:00,
2013-06-04 14:24:00,69.3,41.9,29.90,NNW,336,5.0,7.0,37,0.00,,SKC,0.00,VWS V14.01,2013-06-04 18:24:00,
2013-06-04 14:27:00,69.3,42.6,29.90,NNW,344,3.0,6.0,38,0.00,,SKC,0.00,VWS V14.01,2013-06-04 18:27:00,
2013-06-04 14:28:00,69.3,42.6,29.90,NNW,344,3.0,6.0,38,0.00,,SKC,0.00,VWS V14.01,2013-06-04 18:28:00,
2013-06-04 14:29:00,69.3,41.9,29.90,NW,311,3.0,7.0,37,0.00,,SKC,0.00,VWS V14.01,2013-06-04 18:29:00,
2013-06-04 14:32:00,69.1,43.1,29.90,SSE,164,10.0,10.0,39,0.00,,SKC,0.00,VWS V14.01,2013-06-04 18:32:00,
2013-06-04 14:33:00,69.1,43.1,29.90,NNW,339,10.0,10.0,39,0.00,,SKC,0.00,VWS V14.01,2013-06-04 18:33:00,
2013-06-04 14:34:00,68.9,41.6,29.90,SSE,161,5.0,10.0,37,0.00,,SKC,0.00,VWS V14.01,2013-06-04 18:34:00,
2013-06-04 14:35:00,68.9,43.6,29.90,WNW,288,5.0,5.0,40,0.00,,SKC,0.00,VWS V14.01,2013-06-04 18:35:00,
2013-06-04 14:38:00,68.9,43.0,29.90,SSE,155,2.0,10.0,39,0.00,,SKC,0.00,VWS V14.01,2013-06-04 18:38:00,
2013-06-04 14:39:00,68.9,43.0,29.90,NW,308,1.0,11.0,39,0.00,,SKC,0.00,VWS V14.01,2013-06-04 18:39:00,
2013-06-04 14:40:00,68.9,43.0,29.90,SE,138,2.0,2.0,39,0.00,,SKC,0.00,VWS V14.01,2013-06-04 18:40:00,
2013-06-04 14:43:00,69.1,41.8,29.90,North,353,5.0,6.0,37,0.00,,SKC,0.00,VWS V14.01,2013-06-04 18:43:00,
2013-06-04 14:44:00,69.1,42.5,29.91,SE,145,5.0,11.0,38,0.00,,SKC,0.00,VWS V14.01,2013-06-04 18:44:00,
2013-06-04 14:45:00,69.1,42.5,29.91,SE,143,10.0,11.0,38,0.00,,SKC,0.00,VWS V14.01,2013-06-04 18:45:00,
2013-06-04 14:48:00,69.3,41.9,29.91,WSW,240,1.0,8.0,37,0.00,,SKC,0.00,VWS V14.01,2013-06-04 18:48:00,
2013-06-04 14:49:00,69.3,41.9,29.91,WSW,240,0.0,8.0,37,0.00,,SKC,0.00,VWS V14.01,2013-06-04 18:49:00,
2013-06-04 14:50:00,69.3,41.9,29.91,SE,131,11.0,11.0,37,0.00,,SKC,0.00,VWS V14.01,2013-06-04 18:50:00,
2013-06-04 14:54:00,69.3,41.2,29.91,SSE,155,2.0,13.0,36,0.00,,SKC,0.00,VWS V14.01,2013-06-04 18:54:00,
2013-06-04 14:55:00,69.4,42.7,29.91,North,357,3.0,13.0,38,0.00,,SKC,0.00,VWS V14.01,2013-06-04 18:55:00,
2013-06-04 14:59:00,69.6,42.2,29.91,SSE,167,3.0,12.0,37,0.00,,SKC,0.00,VWS V14.01,2013-06-04 18:59:00,
2013-06-04 15:00:00,69.6,42.2,29.91,SE,133,2.0,12.0,37,0.00,,SKC,0.00,VWS V14.01,2013-06-04 19:00:00,
2013-06-04 15:01:00,69.8,42.4,29.91,SE,137,8.0,10.0,37,0.00,,SKC,0.00,VWS V14.01,2013-06-04 19:01:00,
2013-06-04 15:04:00,69.6,40.8,29.91,SE,140,2.0,11.0,35,0.00,,SKC,0.00,VWS V14.01,2013-06-04 19:04:00,
2013-06-04 15:05:00,69.6,42.9,29.91,NNW,346,7.0,7.0,38,0.00,,SKC,0.00,VWS V14.01,2013-06-04 19:05:00,
2013-06-04 15:07:00,69.4,42.7,29.91,SE,136,4.0,7.0,38,0.00,,SKC,0.00,VWS V14.01,2013-06-04 19:07:00,
2013-06-04 15:09:00,69.4,42.7,29.91,SSE,158,6.0,7.0,38,0.00,,SKC,0.00,VWS V14.01,2013-06-04 19:09:00,
2013-06-04 15:10:00,69.4,42.7,29.91,SSE,147,7.0,7.0,38,0.00,,SKC,0.00,VWS V14.01,2013-06-04 19:10:00,
2013-06-04 15:11:00,69.4,42.7,29.91,North,354,0.0,7.0,38,0.00,,SKC,0.00,VWS V14.01,2013-06-04 19:11:00,
2013-06-04 15:12:00,69.4,44.1,29.91,SSE,167,1.0,7.0,40,0.00,,SKC,0.00,VWS V14.01,2013-06-04 19:12:00,
2013-06-04 15:15:00,69.4,43.4,29.91,North,353,1.0,7.0,39,0.00,,SKC,0.00,VWS V14.01,2013-06-04 19:15:00,
2013-06-04 15:17:00,69.6,43.6,29.91,SE,133,0.0,10.0,39,0.00,,SKC,0.00,VWS V14.01,2013-06-04 19:17:00,
2013-06-04 15:20:00,69.6,42.9,29.91,SE,145,2.0,3.0,38,0.00,,SKC,0.00,VWS V14.01,2013-06-04 19:20:00,
2013-06-04 15:22:00,69.6,42.2,29.91,WNW,296,2.0,7.0,37,0.00,,SKC,0.00,VWS V14.01,2013-06-04 19:22:00,
2013-06-04 15:23:00,69.6,42.2,29.91,West,264,2.0,7.0,37,0.00,,SKC,0.00,VWS V14.01,2013-06-04 19:23:00,
2013-06-04 15:25:00,69.4,42.7,29.91,NNW,340,0.0,1.0,38,0.00,,SKC,0.00,VWS V14.01,2013-06-04 19:25:00,
2013-06-04 15:27:00,69.4,42.7,29.91,North,350,3.0,7.0,38,0.00,,SKC,0.00,VWS V14.01,2013-06-04 19:27:00,
2013-06-04 15:28:00,69.4,42.7,29.91,NNW,330,3.0,7.0,38,0.00,,SKC,0.00,VWS V14.01,2013-06-04 19:28:00,
2013-06-04 15:30:00,69.1,43.1,29.91,South,175,0.0,1.0,39,0.00,,SKC,0.00,VWS V14.01,2013-06-04 19:30:00,
2013-06-04 15:31:00,69.1,42.5,29.91,South,172,0.0,1.0,38,0.00,,SKC,0.00,VWS V14.01,2013-06-04 19:31:00,
2013-06-04 15:32:00,68.9,42.3,29.91,WSW,244,1.0,3.0,38,0.00,,SKC,0.00,VWS V14.01,2013-06-04 19:32:00,
2013-06-04 15:33:00,68.9,42.3,29.91,WSW,247,1.0,3.0,38,0.00,,SKC,0.00,VWS V14.01,2013-06-04 19:33:00,
2013-06-04 15:35:00,68.8,44.2,29.91,NNW,332,1.0,4.0,41,0.00,,SKC,0.00,VWS V14.01,2013-06-04 19:35:00,
2013-06-04 15:37:00,68.9,44.2,29.91,SE,134,5.0,6.0,41,0.00,,SKC,0.00,VWS V14.01,2013-06-04 19:37:00,
2013-06-04 15:38:00,68.9,43.0,29.91,North,357,5.0,12.0,39,0.00,,SKC,0.00,VWS V14.01,2013-06-04 19:38:00,
2013-06-04 15:42:00,68.9,42.3,29.91,NNW,333,1.0,6.0,38,0.00,,SKC,0.00,VWS V14.01,2013-06-04 19:42:00,
2013-06-04 15:43:00,69.1,42.5,29.91,SSE,148,2.0,6.0,38,0.00,,SKC,0.00,VWS V14.01,2013-06-04 19:43:00,
2013-06-04 15:47:00,69.4,43.4,29.91,North,349,5.0,7.0,39,0.00,,SKC,0.00,VWS V14.01,2013-06-04 19:47:00,
2013-06-04 15:48:00,69.4,42.0,29.91,NNW,340,6.0,7.0,37,0.00,,SKC,0.00,VWS V14.01,2013-06-04 19:48:00,
2013-06-04 15:49:00,69.4,42.0,29.91,SE,133,6.0,7.0,37,0.00,,SKC,0.00,VWS V14.01,2013-06-04 19:49:00,
2013-06-04 15:52:00,69.4,42.7,29.91,North,356,2.0,13.0,38,0.00,,SKC,0.00,VWS V14.01,2013-06-04 19:52:00,
2013-06-04 15:53:00,69.4,42.7,29.91,SSE,148,0.0,13.0,38,0.00,,SKC,0.00,VWS V14.01,2013-06-04 19:53:00,
2013-06-04 15:54:00,69.4,44.7,29.91,NNW,343,2.0,13.0,41,0.00,,SKC,0.00,VWS V14.01,2013-06-04 19:54:00,
2013-06-04 15:57:00,69.6,47.3,29.91,WNW,288,1.0,3.0,45,0.00,,SKC,0.00,VWS V14.01,2013-06-04 19:57:00,
2013-06-04 15:58:00,69.4,47.2,29.91,SSE,154,1.0,5.0,45,0.00,,SKC,0.00,VWS V14.01,2013-06-04 19:58:00,
2013-06-04 15:59:00,69.4,47.2,29.91,SW,227,0.0,5.0,45,0.00,,SKC,0.00,VWS V14.01,2013-06-04 19:59:00,
2013-06-04 16:01:00,69.4,42.7,29.91,WNW,298,0.0,2.0,38,0.00,,SKC,0.00,VWS V14.01,2013-06-04 20:01:00,
2013-06-04 16:03:00,69.4,42.7,29.91,North,354,0.0,5.0,38,0.00,,SKC,0.00,VWS V14.01,2013-06-04 20:03:00,
2013-06-04 16:04:00,69.4,42.7,29.91,SSW,208,0.0,7.0,38,0.00,,SKC,0.00,VWS V14.01,2013-06-04 20:04:00,
2013-06-04 16:07:00,69.4,42.7,29.91,WSW,258,0.0,0.0,38,0.00,,SKC,0.00,VWS V14.01,2013-06-04 20:07:00,
2013-06-04 16:09:00,69.6,43.6,29.91,WSW,258,1.0,1.0,39,0.00,,SKC,0.00,VWS V14.01,2013-06-04 20:09:00,
2013-06-04 16:10:00,69.6,43.6,29.91,NW,325,3.0,7.0,39,0.00,,SKC,0.00,VWS V14.01,2013-06-04 20:10:00,
2013-06-04 16:13:00,69.6,42.2,29.91,NNW,336,2.0,8.0,37,0.00,,SKC,0.00,VWS V14.01,2013-06-04 20:13:00,
2013-06-04 16:14:00,69.6,42.9,29.91,NNW,342,5.0,8.0,38,0.00,,SKC,0.00,VWS V14.01,2013-06-04 20:14:00,
2013-06-04 16:15:00,69.6,42.9,29.91,NNW,337,3.0,3.0,38,0.00,,SKC,0.00,VWS V14.01,2013-06-04 20:15:00,
2013-06-04 16:16:00,69.6,42.9,29.91,NNW,337,2.0,3.0,38,0.00,,SKC,0.00,VWS V14.01,2013-06-04 20:16:00,
2013-06-04 16:19:00,69.4,43.4,29.91,NNW,343,0.0,7.0,39,0.00,,SKC,0.00,VWS V14.01,2013-06-04 20:19:00,
2013-06-04 16:21:00,69.4,43.4,29.91,NNW,339,1.0,3.0,39,0.00,,SKC,0.00,VWS V14.01,2013-06-04 20:21:00,
2013-06-04 16:24:00,69.4,42.7,29.91,WNW,285,0.0,3.0,38,0.00,,SKC,0.00,VWS V14.01,2013-06-04 20:24:00,
2013-06-04 16:26:00,69.3,44.0,29.91,SW,232,1.0,6.0,40,0.00,,SKC,0.00,VWS V14.01,2013-06-04 20:26:00,
2013-06-04 16:27:00,69.3,44.0,29.91,SW,226,0.0,6.0,40,0.00,,SKC,0.00,VWS V14.01,2013-06-04 20:27:00,
2013-06-04 16:29:00,69.3,44.0,29.91,SSW,199,0.0,6.0,40,0.00,,SKC,0.00,VWS V14.01,2013-06-04 20:29:00,
2013-06-04 16:30:00,69.3,44.0,29.91,SSW,198,0.0,6.0,40,0.00,,SKC,0.00,VWS V14.01,2013-06-04 20:30:00,
2013-06-04 16:31:00,69.3,45.2,29.91,NNW,346,2.0,4.0,42,0.00,,SKC,0.00,VWS V14.01,2013-06-04 20:31:00,
2013-06-04 16:32:00,69.3,45.2,29.91,NNW,347,0.0,4.0,42,0.00,,SKC,0.00,VWS V14.01,2013-06-04 20:32:00,
2013-06-04 16:33:00,69.3,45.2,29.91,WSW,257,3.0,7.0,42,0.00,,SKC,0.00,VWS V14.01,2013-06-04 20:33:00,
2013-06-04 16:34:00,69.3,45.2,29.91,NW,320,2.0,7.0,42,0.00,,SKC,0.00,VWS V14.01,2013-06-04 20:34:00,
2013-06-04 16:35:00,69.3,42.6,29.91,SSE,161,0.0,0.0,38,0.00,,SKC,0.00,VWS V14.01,2013-06-04 20:35:00,
2013-06-04 16:37:00,69.4,44.7,29.91,SSE,165,0.0,0.0,41,0.00,,SKC,0.00,VWS V14.01,2013-06-04 20:37:00,
2013-06-04 16:38:00,69.3,44.6,29.91,NNW,328,3.0,5.0,41,0.00,,SKC,0.00,VWS V14.01,2013-06-04 20:38:00,
2013-06-04 16:39:00,69.4,44.7,29.91,SE,143,0.0,5.0,41,0.00,,SKC,0.00,VWS V14.01,2013-06-04 20:39:00,
2013-06-04 16:40:00,69.4,42.7,29.91,NNW,330,0.0,2.0,38,0.00,,SKC,0.00,VWS V14.01,2013-06-04 20:40:00,
2013-06-04 16:42:00,69.6,44.2,29.91,West,277,0.0,3.0,40,0.00,,SKC,0.00,VWS V14.01,2013-06-04 20:42:00,
2013-06-04 16:43:00,69.6,43.6,29.91,West,277,0.0,3.0,39,0.00,,SKC,0.00,VWS V14.01,2013-06-04 20:43:00,
2013-06-04 16:44:00,69.6,43.6,29.90,WNW,282,0.0,3.0,39,0.00,,SKC,0.00,VWS V14.01,2013-06-04 20:44:00,
2013-06-04 16:47:00,69.6,42.9,29.90,South,178,1.0,6.0,38,0.00,,SKC,0.00,VWS V14.01,2013-06-04 20:47:00,
2013-06-04 16:48:00,69.6,42.9,29.90,NNW,340,2.0,6.0,38,0.00,,SKC,0.00,VWS V14.01,2013-06-04 20:48:00,
2013-06-04 16:49:00,69.6,42.9,29.90,NW,326,1.0,6.0,38,0.00,,SKC,0.00,VWS V14.01,2013-06-04 20:49:00,
2013-06-04 16:50:00,69.6,42.2,29.90,North,354,1.0,6.0,37,0.00,,SKC,0.00,VWS V14.01,2013-06-04 20:50:00,
2013-06-04 16:52:00,69.6,42.2,29.90,WNW,285,2.0,6.0,37,0.00,,SKC,0.00,VWS V14.01,2013-06-04 20:52:00,
2013-06-04 16:53:00,69.6,41.5,29.90,North,350,0.0,6.0,36,0.00,,SKC,0.00,VWS V14.01,2013-06-04 20:53:00,
2013-06-04 16:54:00,69.6,41.5,29.90,North,357,2.0,6.0,36,0.00,,SKC,0.00,VWS V14.01,2013-06-04 20:54:00,
2013-06-04 16:55:00,69.8,41.7,29.90,North,357,0.0,6.0,36,0.00,,SKC,0.00,VWS V14.01,2013-06-04 20:55:00,
2013-06-04 16:57:00,69.8,43.1,29.90,NNW,342,0.0,7.0,38,0.00,,SKC,0.00,VWS V14.01,2013-06-04 20:57:00,
2013-06-04 16:59:00,69.8,43.1,29.90,SE,133,7.0,7.0,38,0.00,,SKC,0.00,VWS V14.01,2013-06-04 20:59:00,
2013-06-04 17:00:00,69.8,42.4,29.90,SE,137,10.0,10.0,37,0.00,,SKC,0.00,VWS V14.01,2013-06-04 21:00:00,
2013-06-04 17:02:00,69.8,43.1,29.90,NNW,335,3.0,10.0,38,0.00,,SKC,0.00,VWS V14.01,2013-06-04 21:02:00,
2013-06-04 17:04:00,69.8,43.1,29.90,NNW,336,0.0,10.0,38,0.00,,SKC,0.00,VWS V14.01,2013-06-04 21:04:00,
2013-06-04 17:05:00,69.8,43.1,29.90,NNW,337,0.0,10.0,38,0.00,,SKC,0.00,VWS V14.01,2013-06-04 21:05:00,
2013-06-04 17:07:00,69.8,42.4,29.90,NNW,344,3.0,3.0,37,0.00,,SKC,0.00,VWS V14.01,2013-06-04 21:07:00,
2013-06-04 17:09:00,69.8,42.4,29.90,SE,127,0.0,7.0,37,0.00,,SKC,0.00,VWS V14.01,2013-06-04 21:09:00,
2013-06-04 17:10:00,69.6,42.2,29.90,WSW,254,2.0,2.0,37,0.00,,SKC,0.00,VWS V14.01,2013-06-04 21:10:00,
2013-06-04 17:11:00,69.6,42.2,29.90,WSW,247,0.0,3.0,37,0.00,,SKC,0.00,VWS V14.01,2013-06-04 21:11:00,
2013-06-04 17:12:00,69.6,42.2,29.90,WSW,248,0.0,3.0,37,0.00,,SKC,0.00,VWS V14.01,2013-06-04 21:12:00,
2013-06-04 17:13:00,69.6,42.2,29.90,WSW,247,0.0,3.0,37,0.00,,SKC,0.00,VWS V14.01,2013-06-04 21:13:00,
2013-06-04 17:15:00,69.6,45.5,29.90,WSW,247,0.0,3.0,42,0.00,,SKC,0.00,VWS V14.01,2013-06-04 21:15:00,
2013-06-04 17:17:00,69.4,42.7,29.90,WSW,246,0.0,0.0,38,0.00,,SKC,0.00,VWS V14.01,2013-06-04 21:17:00,
2013-06-04 17:18:00,69.3,44.6,29.90,WSW,246,0.0,0.0,41,0.00,,SKC,0.00,VWS V14.01,2013-06-04 21:18:00,
2013-06-04 17:20:00,69.3,44.0,29.90,NNW,332,2.0,5.0,40,0.00,,SKC,0.00,VWS V14.01,2013-06-04 21:20:00,
2013-06-04 17:21:00,69.3,43.3,29.90,NNW,330,0.0,5.0,39,0.00,,SKC,0.00,VWS V14.01,2013-06-04 21:21:00,
2013-06-04 17:23:00,69.3,43.3,29.90,NNW,344,1.0,5.0,39,0.00,,SKC,0.00,VWS V14.01,2013-06-04 21:23:00,
2013-06-04 17:25:00,69.4,42.7,29.90,SE,144,2.0,3.0,38,0.00,,SKC,0.00,VWS V14.01,2013-06-04 21:25:00,
2013-06-04 17:28:00,69.4,43.4,29.90,SSE,147,2.0,8.0,39,0.00,,SKC,0.00,VWS V14.01,2013-06-04 21:28:00,
2013-06-04 17:30:00,69.4,44.1,29.90,SE,144,2.0,2.0,40,0.00,,SKC,0.00,VWS V14.01,2013-06-04 21:30:00,
2013-06-04 17:34:00,69.3,42.6,29.90,WNW,294,1.0,4.0,38,0.00,,SKC,0.00,VWS V14.01,2013-06-04 21:34:00,
2013-06-04 17:36:00,69.3,42.6,29.90,West,267,4.0,5.0,38,0.00,,SKC,0.00,VWS V14.01,2013-06-04 21:36:00,
2013-06-04 17:39:00,69.1,43.8,29.90,West,280,0.0,5.0,40,0.00,,SKC,0.00,VWS V14.01,2013-06-04 21:39:00,
2013-06-04 17:41:00,69.1,43.8,29.90,WNW,284,0.0,0.0,40,0.00,,SKC,0.00,VWS V14.01,2013-06-04 21:41:00,
2013-06-04 17:44:00,69.1,43.8,29.90,NNW,347,0.0,6.0,40,0.00,,SKC,0.00,VWS V14.01,2013-06-04 21:44:00,
2013-06-04 17:45:00,69.1,43.8,29.90,NNW,347,0.0,0.0,40,0.00,,SKC,0.00,VWS V14.01,2013-06-04 21:45:00,
2013-06-04 17:49:00,69.1,42.5,29.90,NNW,344,0.0,5.0,38,0.00,,SKC,0.00,VWS V14.01,2013-06-04 21:49:00,
2013-06-04 17:50:00,69.1,44.4,29.90,NNW,344,0.0,0.0,41,0.00,,SKC,0.00,VWS V14.01,2013-06-04 21:50:00,
2013-06-04 17:51:00,69.1,45.1,29.90,NW,322,0.0,3.0,42,0.00,,SKC,0.00,VWS V14.01,2013-06-04 21:51:00,
2013-06-04 17:55:00,69.1,43.8,29.90,NNW,340,1.0,6.0,40,0.00,,SKC,0.00,VWS V14.01,2013-06-04 21:55:00,
2013-06-04 17:56:00,69.1,44.4,29.90,NNW,342,0.0,1.0,41,0.00,,SKC,0.00,VWS V14.01,2013-06-04 21:56:00,
2013-06-04 17:57:00,69.1,44.4,29.90,NNW,342,0.0,1.0,41,0.00,,SKC,0.00,VWS V14.01,2013-06-04 21:57:00,
2013-06-04 18:00:00,69.1,44.4,29.90,NNW,330,0.0,0.0,41,0.00,,SKC,0.00,VWS V14.01,2013-06-04 22:00:00,
2013-06-04 18:01:00,68.9,44.9,29.90,SSE,157,3.0,7.0,42,0.00,,SKC,0.00,VWS V14.01,2013-06-04 22:01:00,
2013-06-04 18:02:00,68.9,44.9,29.90,West,274,2.0,7.0,42,0.00,,SKC,0.00,VWS V14.01,2013-06-04 22:02:00,
2013-06-04 18:03:00,68.8,43.5,29.90,NNW,342,0.0,7.0,40,0.00,,SKC,0.00,VWS V14.01,2013-06-04 22:03:00,
2013-06-04 18:05:00,68.8,43.5,29.90,NNW,340,0.0,0.0,40,0.00,,SKC,0.00,VWS V14.01,2013-06-04 22:05:00,
2013-06-04 18:06:00,68.8,43.5,29.90,NNW,342,0.0,0.0,40,0.00,,SKC,0.00,VWS V14.01,2013-06-04 22:06:00,
2013-06-04 18:08:00,68.6,44.0,29.90,West,261,0.0,3.0,41,0.00,,SKC,0.00,VWS V14.01,2013-06-04 22:08:00,
2013-06-04 18:09:00,68.6,44.0,29.90,WSW,250,2.0,3.0,41,0.00,,SKC,0.00,VWS V14.01,2013-06-04 22:09:00,
2013-06-04 18:11:00,68.6,45.8,29.90,West,263,0.0,1.0,44,0.00,,SKC,0.00,VWS V14.01,2013-06-04 22:11:00,
2013-06-04 18:14:00,68.6,44.6,29.90,WSW,256,0.0,1.0,42,0.00,,SKC,0.00,VWS V14.01,2013-06-04 22:14:00,
2013-06-04 18:16:00,68.6,44.6,29.90,WNW,294,1.0,1.0,42,0.00,,SKC,0.00,VWS V14.01,2013-06-04 22:16:00,
2013-06-04 18:17:00,68.6,44.6,29.90,WNW,285,1.0,2.0,42,0.00,,SKC,0.00,VWS V14.01,2013-06-04 22:17:00,
2013-06-04 18:19:00,68.4,44.4,29.90,West,263,1.0,6.0,42,0.00,,SKC,0.00,VWS V14.01,2013-06-04 22:19:00,
2013-06-04 18:22:00,68.4,43.2,29.90,North,352,0.0,7.0,40,0.00,,SKC,0.00,VWS V14.01,2013-06-04 22:22:00,
2013-06-04 18:24:00,68.4,43.2,29.90,SW,230,1.0,7.0,40,0.00,,SKC,0.00,VWS V14.01,2013-06-04 22:24:00,
2013-06-04 18:27:00,68.4,43.2,29.90,SE,145,0.0,2.0,40,0.00,,SKC,0.00,VWS V14.01,2013-06-04 22:27:00,
2013-06-04 18:28:00,68.4,43.8,29.90,SSE,147,0.0,2.0,41,0.00,,SKC,0.00,VWS V14.01,2013-06-04 22:28:00,
2013-06-04 18:29:00,68.4,43.8,29.91,SSE,150,0.0,3.0,41,0.00,,SKC,0.00,VWS V14.01,2013-06-04 22:29:00,
2013-06-04 18:30:00,68.4,45.0,29.91,SSE,150,0.0,3.0,43,0.00,,SKC,0.00,VWS V14.01,2013-06-04 22:30:00,
2013-06-04 18:33:00,68.4,45.7,29.91,SSE,154,0.0,0.0,44,0.00,,SKC,0.00,VWS V14.01,2013-06-04 22:33:00,
2013-06-04 18:34:00,68.4,45.0,29.91,SSE,154,0.0,0.0,43,0.00,,SKC,0.00,VWS V14.01,2013-06-04 22:34:00,
2013-06-04 18:35:00,68.4,45.0,29.91,SSE,155,0.0,0.0,43,0.00,,SKC,0.00,VWS V14.01,2013-06-04 22:35:00,
2013-06-04 18:38:00,68.4,45.0,29.91,NW,315,1.0,2.0,43,0.00,,SKC,0.00,VWS V14.01,2013-06-04 22:38:00,
2013-06-04 18:39:00,68.4,45.0,29.91,WSW,256,2.0,2.0,43,0.00,,SKC,0.00,VWS V14.01,2013-06-04 22:39:00,
2013-06-04 18:40:00,68.3,45.0,29.91,West,260,1.0,1.0,43,0.00,,SKC,0.00,VWS V14.01,2013-06-04 22:40:00,
2013-06-04 18:44:00,68.3,44.3,29.91,North,350,0.0,2.0,42,0.00,,SKC,0.00,VWS V14.01,2013-06-04 22:44:00,
2013-06-04 18:45:00,68.3,45.0,29.92,North,349,0.0,2.0,43,0.00,,SKC,0.00,VWS V14.01,2013-06-04 22:45:00,
2013-06-04 18:49:00,68.3,44.3,29.92,NNW,347,0.0,2.0,42,0.00,,SKC,0.00,VWS V14.01,2013-06-04 22:49:00,
2013-06-04 18:50:00,68.3,45.0,29.92,SE,133,0.0,0.0,43,0.00,,SKC,0.00,VWS V14.01,2013-06-04 22:50:00,
2013-06-04 18:51:00,68.3,45.0,29.92,SE,138,0.0,0.0,43,0.00,,SKC,0.00,VWS V14.01,2013-06-04 22:51:00,
2013-06-04 18:54:00,68.1,45.4,29.92,SE,137,0.0,0.0,44,0.00,,SKC,0.00,VWS V14.01,2013-06-04 22:54:00,
2013-06-04 18:55:00,68.1,45.4,29.92,North,353,2.0,2.0,44,0.00,,SKC,0.00,VWS V14.01,2013-06-04 22:55:00,
2013-06-04 18:56:00,68.1,44.8,29.92,North,350,0.0,2.0,43,0.00,,SKC,0.00,VWS V14.01,2013-06-04 22:56:00,
2013-06-04 18:57:00,68.1,44.8,29.92,North,353,0.0,2.0,43,0.00,,SKC,0.00,VWS V14.01,2013-06-04 22:57:00,
2013-06-04 19:00:00,67.9,44.6,29.93,NW,304,0.0,2.0,43,0.00,,SKC,0.00,VWS V14.01,2013-06-04 23:00:00,
2013-06-04 19:01:00,67.9,45.2,29.93,NW,308,0.0,0.0,44,0.00,,SKC,0.00,VWS V14.01,2013-06-04 23:01:00,
2013-06-04 19:02:00,67.9,45.2,29.93,NW,304,0.0,0.0,44,0.00,,SKC,0.00,VWS V14.01,2013-06-04 23:02:00,
2013-06-04 19:05:00,67.9,45.8,29.93,NW,323,0.0,1.0,45,0.00,,SKC,0.00,VWS V14.01,2013-06-04 23:05:00,
2013-06-04 19:07:00,67.9,47.0,29.93,NW,325,0.0,0.0,47,0.00,,SKC,0.00,VWS V14.01,2013-06-04 23:07:00,
2013-06-04 19:10:00,67.8,46.3,29.93,NW,319,0.0,0.0,46,0.00,,SKC,0.00,VWS V14.01,2013-06-04 23:10:00,
2013-06-04 19:11:00,67.8,46.3,29.93,NNW,332,0.0,0.0,46,0.00,,SKC,0.00,VWS V14.01,2013-06-04 23:11:00,
2013-06-04 19:12:00,67.6,46.1,29.93,NNW,332,0.0,0.0,46,0.00,,SKC,0.00,VWS V14.01,2013-06-04 23:12:00,
2013-06-04 19:15:00,67.4,47.0,29.93,NNW,333,0.0,0.0,48,0.00,,SKC,0.00,VWS V14.01,2013-06-04 23:15:00,
2013-06-04 19:16:00,67.4,47.0,29.93,NNW,335,0.0,0.0,48,0.00,,SKC,0.00,VWS V14.01,2013-06-04 23:16:00,
2013-06-04 19:17:00,67.4,48.1,29.93,NNW,333,0.0,0.0,50,0.00,,SKC,0.00,VWS V14.01,2013-06-04 23:17:00,
2013-06-04 19:18:00,67.4,48.1,29.93,NNW,333,0.0,0.0,50,0.00,,SKC,0.00,VWS V14.01,2013-06-04 23:18:00,
2013-06-04 19:21:00,67.3,49.1,29.93,NNW,332,0.0,0.0,52,0.00,,SKC,0.00,VWS V14.01,2013-06-04 23:21:00,
2013-06-04 19:22:00,67.3,49.1,29.93,NNW,333,0.0,0.0,52,0.00,,SKC,0.00,VWS V14.01,2013-06-04 23:22:00,
2013-06-04 19:24:00,67.1,49.9,29.93,NNW,333,0.0,0.0,54,0.00,,SKC,0.00,VWS V14.01,2013-06-04 23:24:00,
2013-06-04 19:26:00,66.9,47.1,29.93,NNW,333,0.0,0.0,49,0.00,,SKC,0.00,VWS V14.01,2013-06-04 23:26:00,
2013-06-04 19:27:00,66.9,47.1,29.93,NNW,335,0.0,0.0,49,0.00,,SKC,0.00,VWS V14.01,2013-06-04 23:27:00,
2013-06-04 19:29:00,66.8,47.6,29.93,NNW,333,0.0,0.0,50,0.00,,SKC,0.00,VWS V14.01,2013-06-04 23:29:00,
2013-06-04 19:31:00,66.6,49.0,29.94,NNW,333,0.0,0.0,53,0.00,,SKC,0.00,VWS V14.01,2013-06-04 23:31:00,
2013-06-04 19:32:00,66.6,49.0,29.94,NNW,333,0.0,0.0,53,0.00,,SKC,0.00,VWS V14.01,2013-06-04 23:32:00,
2013-06-04 19:33:00,66.4,48.3,29.94,NNW,333,0.0,0.0,52,0.00,,SKC,0.00,VWS V14.01,2013-06-04 23:33:00,
2013-06-04 19:34:00,66.4,48.3,29.94,NNW,335,0.0,0.0,52,0.00,,SKC,0.00,VWS V14.01,2013-06-04 23:34:00,
2013-06-04 19:37:00,66.3,47.7,29.94,NNW,332,0.0,0.0,51,0.00,,SKC,0.00,VWS V14.01,2013-06-04 23:37:00,
2013-06-04 19:38:00,66.3,47.7,29.94,NNW,332,0.0,0.0,51,0.00,,SKC,0.00,VWS V14.01,2013-06-04 23:38:00,
2013-06-04 19:39:00,66.1,47.5,29.94,NNW,335,0.0,0.0,51,0.00,,SKC,0.00,VWS V14.01,2013-06-04 23:39:00,
2013-06-04 19:40:00,66.1,47.5,29.94,NNW,333,0.0,0.0,51,0.00,,SKC,0.00,VWS V14.01,2013-06-04 23:40:00,
2013-06-04 19:42:00,66.0,47.9,29.94,NNW,332,0.0,0.0,52,0.00,,SKC,0.00,VWS V14.01,2013-06-04 23:42:00,
2013-06-04 19:43:00,66.0,47.9,29.94,NNW,336,0.0,0.0,52,0.00,,SKC,0.00,VWS V14.01,2013-06-04 23:43:00,
2013-06-04 19:45:00,66.0,47.9,29.94,NNW,332,0.0,0.0,52,0.00,,SKC,0.00,VWS V14.01,2013-06-04 23:45:00,
2013-06-04 19:49:00,65.8,50.6,29.94,NNW,335,0.0,0.0,58,0.00,,SKC,0.00,VWS V14.01,2013-06-04 23:49:00,
2013-06-04 19:50:00,65.6,50.4,29.94,NNW,336,0.0,0.0,58,0.00,,SKC,0.00,VWS V14.01,2013-06-04 23:50:00,
2013-06-04 19:54:00,65.3,51.5,29.94,NNW,333,0.0,0.0,61,0.00,,SKC,0.00,VWS V14.01,2013-06-04 23:54:00,
2013-06-04 19:55:00,65.3,51.5,29.94,NNW,332,0.0,0.0,61,0.00,,SKC,0.00,VWS V14.01,2013-06-04 23:55:00,
2013-06-04 19:57:00,65.0,50.3,29.94,NNW,335,0.0,0.0,59,0.00,,SKC,0.00,VWS V14.01,2013-06-04 23:57:00,
2013-06-04 19:59:00,64.8,50.2,29.95,NNW,335,0.0,0.0,59,0.00,,SKC,0.00,VWS V14.01,2013-06-04 23:59:00,
2013-06-04 20:00:00,64.8,49.7,29.95,NNW,337,0.0,0.0,58,0.00,,SKC,0.00,VWS V14.01,2013-06-05 00:00:00,
2013-06-04 20:02:00,64.7,50.5,29.95,NNW,335,0.0,0.0,60,0.00,,SKC,0.00,VWS V14.01,2013-06-05 00:02:00,
2013-06-04 20:05:00,64.5,49.9,29.95,NNW,328,0.0,0.0,59,0.00,,SKC,0.00,VWS V14.01,2013-06-05 00:05:00,
2013-06-04 20:06:00,64.3,49.7,29.95,NNW,337,0.0,0.0,59,0.00,,SKC,0.00,VWS V14.01,2013-06-05 00:06:00,
2013-06-04 20:08:00,64.3,50.1,29.95,NNW,336,0.0,0.0,60,0.00,,SKC,0.00,VWS V14.01,2013-06-05 00:08:00,
2013-06-04 20:10:00,64.2,50.0,29.95,NNW,332,0.0,0.0,60,0.00,,SKC,0.00,VWS V14.01,2013-06-05 00:10:00,
2013-06-04 20:11:00,64.0,50.3,29.95,NNW,330,0.0,0.0,61,0.00,,SKC,0.00,VWS V14.01,2013-06-05 00:11:00,
2013-06-04 20:12:00,64.0,50.3,29.95,NNW,333,0.0,0.0,61,0.00,,SKC,0.00,VWS V14.01,2013-06-05 00:12:00,
2013-06-04 20:14:00,63.7,50.5,29.95,NNW,335,0.0,0.0,62,0.00,,SKC,0.00,VWS V14.01,2013-06-05 00:14:00,
2013-06-04 20:15:00,63.7,50.5,29.95,NNW,335,0.0,0.0,62,0.00,,SKC,0.00,VWS V14.01,2013-06-05 00:15:00,
2013-06-04 20:16:00,63.7,50.5,29.95,NNW,333,0.0,0.0,62,0.00,,SKC,0.00,VWS V14.01,2013-06-05 00:16:00,
2013-06-04 20:17:00,63.5,50.3,29.95,NNW,330,0.0,0.0,62,0.00,,SKC,0.00,VWS V14.01,2013-06-05 00:17:00,
2013-06-04 20:20:00,63.4,49.7,29.95,NNW,336,0.0,0.0,61,0.00,,SKC,0.00,VWS V14.01,2013-06-05 00:20:00,
2013-06-04 20:21:00,63.2,49.5,29.95,NNW,336,0.0,0.0,61,0.00,,SKC,0.00,VWS V14.01,2013-06-05 00:21:00,
2013-06-04 20:22:00,63.2,49.5,29.95,NNW,335,0.0,0.0,61,0.00,,SKC,0.00,VWS V14.01,2013-06-05 00:22:00,
2013-06-04 20:25:00,62.9,50.5,29.95,NNW,335,0.0,0.0,64,0.00,,SKC,0.00,VWS V14.01,2013-06-05 00:25:00,
2013-06-04 20:26:00,62.9,50.5,29.95,NNW,330,0.0,0.0,64,0.00,,SKC,0.00,VWS V14.01,2013-06-05 00:26:00,
2013-06-04 20:27:00,62.7,50.4,29.95,NNW,335,0.0,0.0,64,0.00,,SKC,0.00,VWS V14.01,2013-06-05 00:27:00,
2013-06-04 20:30:00,62.6,49.4,29.96,NNW,330,0.0,0.0,62,0.00,,SKC,0.00,VWS V14.01,2013-06-05 00:30:00,
2013-06-04 20:31:00,62.4,49.2,29.96,NNW,329,0.0,0.0,62,0.00,,SKC,0.00,VWS V14.01,2013-06-05 00:31:00,
2013-06-04 20:32:00,62.4,49.2,29.96,NNW,335,0.0,0.0,62,0.00,,SKC,0.00,VWS V14.01,2013-06-05 00:32:00,
2013-06-04 20:35:00,62.3,50.0,29.96,NNW,336,0.0,0.0,64,0.00,,SKC,0.00,VWS V14.01,2013-06-05 00:35:00,
2013-06-04 20:37:00,62.1,50.2,29.96,NNW,337,0.0,0.0,65,0.00,,SKC,0.00,VWS V14.01,2013-06-05 00:37:00,
2013-06-04 20:38:00,62.1,48.9,29.96,NNW,335,0.0,0.0,62,0.00,,SKC,0.00,VWS V14.01,2013-06-05 00:38:00,
2013-06-04 20:42:00,61.8,49.9,29.96,NNW,336,0.0,0.0,65,0.00,,SKC,0.00,VWS V14.01,2013-06-05 00:42:00,
2013-06-04 20:43:00,61.6,49.3,29.96,NNW,336,0.0,0.0,64,0.00,,SKC,0.00,VWS V14.01,2013-06-05 00:43:00,
2013-06-04 20:47:00,61.3,49.0,29.96,NNW,336,0.0,0.0,64,0.00,,SKC,0.00,VWS V14.01,2013-06-05 00:47:00,
2013-06-04 20:48:00,61.3,49.9,29.96,NNW,336,0.0,0.0,66,0.00,,SKC,0.00,VWS V14.01,2013-06-05 00:48:00,
2013-06-04 20:52:00,61.2,50.6,29.96,NNW,333,0.0,0.0,68,0.00,,SKC,0.00,VWS V14.01,2013-06-05 00:52:00,
2013-06-04 20:53:00,61.0,50.4,29.96,NNW,335,0.0,0.0,68,0.00,,SKC,0.00,VWS V14.01,2013-06-05 00:53:00,
2013-06-04 20:54:00,61.0,50.8,29.96,NNW,333,0.0,0.0,69,0.00,,SKC,0.00,VWS V14.01,2013-06-05 00:54:00,
2013-06-04 20:58:00,60.7,50.9,29.96,NNW,335,0.0,0.0,70,0.00,,SKC,0.00,VWS V14.01,2013-06-05 00:58:00,
2013-06-04 20:59:00,60.7,50.9,29.96,NNW,333,0.0,0.0,70,0.00,,SKC,0.00,VWS V14.01,2013-06-05 00:59:00,
2013-06-04 21:00:00,60.7,51.2,29.97,NNW,335,0.0,0.0,71,0.00,,SKC,0.00,VWS V14.01,2013-06-05 01:00:00,
2013-06-04 21:03:00,60.5,51.8,29.97,NNW,336,0.0,0.0,73,0.00,,SKC,0.00,VWS V14.01,2013-06-05 01:03:00,
2013-06-04 21:04:00,60.5,51.8,29.97,NNW,335,0.0,0.0,73,0.00,,SKC,0.00,VWS V14.01,2013-06-05 01:04:00,
2013-06-04 21:05:00,60.4,51.7,29.97,NNW,333,0.0,0.0,73,0.00,,SKC,0.00,VWS V14.01,2013-06-05 01:05:00,
2013-06-04 21:08:00,60.2,51.9,29.97,NNW,333,0.0,0.0,74,0.00,,SKC,0.00,VWS V14.01,2013-06-05 01:08:00,
2013-06-04 21:09:00,60.2,51.9,29.97,NNW,335,0.0,0.0,74,0.00,,SKC,0.00,VWS V14.01,2013-06-05 01:09:00,
2013-06-04 21:10:00,60.2,51.9,29.97,NNW,335,0.0,0.0,74,0.00,,SKC,0.00,VWS V14.01,2013-06-05 01:10:00,
2013-06-04 21:13:00,60.1,51.8,29.97,NNW,333,0.0,0.0,74,0.00,,SKC,0.00,VWS V14.01,2013-06-05 01:13:00,
2013-06-04 21:14:00,60.1,52.2,29.97,NNW,333,0.0,0.0,75,0.00,,SKC,0.00,VWS V14.01,2013-06-05 01:14:00,
2013-06-04 21:15:00,59.9,52.0,29.98,NNW,333,0.0,0.0,75,0.00,,SKC,0.00,VWS V14.01,2013-06-05 01:15:00,
2013-06-04 21:19:00,59.6,51.7,29.98,NNW,333,0.0,0.0,75,0.00,,SKC,0.00,VWS V14.01,2013-06-05 01:19:00,
2013-06-04 21:20:00,59.6,51.7,29.98,NNW,335,0.0,0.0,75,0.00,,SKC,0.00,VWS V14.01,2013-06-05 01:20:00,
2013-06-04 21:24:00,59.3,52.5,29.98,NNW,335,0.0,0.0,78,0.00,,SKC,0.00,VWS V14.01,2013-06-05 01:24:00,
2013-06-04 21:25:00,59.3,52.5,29.98,NNW,332,0.0,0.0,78,0.00,,SKC,0.00,VWS V14.01,2013-06-05 01:25:00,
2013-06-04 21:27:00,59.2,53.0,29.98,NNW,333,0.0,0.0,80,0.00,,SKC,0.00,VWS V14.01,2013-06-05 01:27:00,
2013-06-04 21:29:00,59.2,53.0,29.99,NNW,333,0.0,0.0,80,0.00,,SKC,0.00,VWS V14.01,2013-06-05 01:29:00,
2013-06-04 21:30:00,59.0,53.2,29.99,NNW,333,0.0,0.0,81,0.00,,SKC,0.00,VWS V14.01,2013-06-05 01:30:00,
2013-06-04 21:31:00,59.0,53.2,29.99,NNW,335,0.0,0.0,81,0.00,,SKC,0.00,VWS V14.01,2013-06-05 01:31:00,
2013-06-04 21:33:00,58.9,53.1,29.99,NNW,335,0.0,0.0,81,0.00,,SKC,0.00,VWS V14.01,2013-06-05 01:33:00,
2013-06-04 21:35:00,58.7,52.9,29.99,NNW,335,0.0,0.0,81,0.00,,SKC,0.00,VWS V14.01,2013-06-05 01:35:00,
2013-06-04 21:36:00,58.7,52.9,29.99,NNW,335,0.0,0.0,81,0.00,,SKC,0.00,VWS V14.01,2013-06-05 01:36:00,
2013-06-04 21:38:00,58.6,52.8,29.99,NNW,335,0.0,0.0,81,0.00,,SKC,0.00,VWS V14.01,2013-06-05 01:38:00,
2013-06-04 21:40:00,58.4,52.6,29.99,NNW,335,0.0,0.0,81,0.00,,SKC,0.00,VWS V14.01,2013-06-05 01:40:00,
2013-06-04 21:41:00,58.4,52.9,29.99,NNW,333,0.0,0.0,82,0.00,,SKC,0.00,VWS V14.01,2013-06-05 01:41:00,
2013-06-04 21:45:00,58.1,52.6,30.00,NNW,333,0.0,0.0,82,0.00,,SKC,0.00,VWS V14.01,2013-06-05 01:45:00,
2013-06-04 21:46:00,58.1,52.6,30.00,NNW,335,0.0,0.0,82,0.00,,SKC,0.00,VWS V14.01,2013-06-05 01:46:00,
2013-06-04 21:47:00,58.0,52.9,30.00,NNW,333,0.0,0.0,83,0.00,,SKC,0.00,VWS V14.01,2013-06-05 01:47:00,
2013-06-04 21:50:00,58.0,53.2,30.00,NNW,335,0.0,0.0,84,0.00,,SKC,0.00,VWS V14.01,2013-06-05 01:50:00,
2013-06-04 21:51:00,57.8,53.0,30.00,NNW,333,0.0,0.0,84,0.00,,SKC,0.00,VWS V14.01,2013-06-05 01:51:00,
2013-06-04 21:52:00,57.8,53.0,30.00,NNW,333,0.0,0.0,84,0.00,,SKC,0.00,VWS V14.01,2013-06-05 01:52:00,
2013-06-04 21:55:00,57.6,53.1,30.00,NNW,333,0.0,0.0,85,0.00,,SKC,0.00,VWS V14.01,2013-06-05 01:55:00,
2013-06-04 21:56:00,57.6,53.1,30.00,NNW,333,0.0,0.0,85,0.00,,SKC,0.00,VWS V14.01,2013-06-05 01:56:00,
2013-06-04 21:57:00,57.6,53.1,30.00,NNW,335,0.0,0.0,85,0.00,,SKC,0.00,VWS V14.01,2013-06-05 01:57:00,
2013-06-04 22:00:00,57.5,53.0,30.01,NNW,336,0.0,0.0,85,0.00,,SKC,0.00,VWS V14.01,2013-06-05 02:00:00,
2013-06-04 22:01:00,57.5,53.0,30.01,NNW,336,0.0,0.0,85,0.00,,SKC,0.00,VWS V14.01,2013-06-05 02:01:00,
2013-06-04 22:02:00,57.5,53.0,30.01,NNW,332,0.0,0.0,85,0.00,,SKC,0.00,VWS V14.01,2013-06-05 02:02:00,
2013-06-04 22:03:00,57.3,52.8,30.01,NNW,333,0.0,0.0,85,0.00,,SKC,0.00,VWS V14.01,2013-06-05 02:03:00,
2013-06-04 22:06:00,57.3,53.2,30.01,NNW,335,0.0,0.0,86,0.00,,SKC,0.00,VWS V14.01,2013-06-05 02:06:00,
2013-06-04 22:07:00,57.2,53.1,30.01,NNW,335,0.0,0.0,86,0.00,,SKC,0.00,VWS V14.01,2013-06-05 02:07:00,
2013-06-04 22:08:00,57.2,53.1,30.01,NNW,329,0.0,0.0,86,0.00,,SKC,0.00,VWS V14.01,2013-06-05 02:08:00,
2013-06-04 22:12:00,57.0,52.9,30.01,NNW,335,0.0,0.0,86,0.00,,SKC,0.00,VWS V14.01,2013-06-05 02:12:00,
2013-06-04 22:13:00,57.0,52.9,30.01,NNW,335,0.0,0.0,86,0.00,,SKC,0.00,VWS V14.01,2013-06-05 02:13:00,
2013-06-04 22:17:00,56.9,52.8,30.01,NNW,336,0.0,0.0,86,0.00,,SKC,0.00,VWS V14.01,2013-06-05 02:17:00,
2013-06-04 22:18:00,56.7,52.6,30.01,NNW,330,0.0,0.0,86,0.00,,SKC,0.00,VWS V14.01,2013-06-05 02:18:00,
2013-06-04 22:22:00,56.6,52.5,30.01,NNW,335,0.0,0.0,86,0.00,,SKC,0.00,VWS V14.01,2013-06-05 02:22:00,
2013-06-04 22:23:00,56.6,52.5,30.01,NNW,335,0.0,0.0,86,0.00,,SKC,0.00,VWS V14.01,2013-06-05 02:23:00,
2013-06-04 22:24:00,56.6,52.5,30.01,NNW,335,0.0,0.0,86,0.00,,SKC,0.00,VWS V14.01,2013-06-05 02:24:00,
2013-06-04 22:27:00,56.5,52.7,30.01,NNW,333,0.0,0.0,87,0.00,,SKC,0.00,VWS V14.01,2013-06-05 02:27:00,
2013-06-04 22:28:00,56.5,52.7,30.01,NNW,335,0.0,0.0,87,0.00,,SKC,0.00,VWS V14.01,2013-06-05 02:28:00,
2013-06-04 22:29:00,56.5,52.7,30.01,NNW,333,0.0,0.0,87,0.00,,SKC,0.00,VWS V14.01,2013-06-05 02:29:00,
2013-06-04 22:33:00,56.3,52.5,30.01,NNW,333,0.0,0.0,87,0.00,,SKC,0.00,VWS V14.01,2013-06-05 02:33:00,
2013-06-04 22:34:00,56.2,52.4,30.01,NNW,335,0.0,0.0,87,0.00,,SKC,0.00,VWS V14.01,2013-06-05 02:34:00,
2013-06-04 22:35:00,56.0,52.2,30.01,NNW,335,2.0,2.0,87,0.00,,SKC,0.00,VWS V14.01,2013-06-05 02:35:00,
2013-06-04 22:38:00,55.9,51.8,30.01,NNW,335,0.0,2.0,86,0.00,,SKC,0.00,VWS V14.01,2013-06-05 02:38:00,
2013-06-04 22:39:00,55.9,51.8,30.01,NNW,335,0.0,2.0,86,0.00,,SKC,0.00,VWS V14.01,2013-06-05 02:39:00,
2013-06-04 22:40:00,55.9,51.8,30.01,NNW,335,0.0,0.0,86,0.00,,SKC,0.00,VWS V14.01,2013-06-05 02:40:00,
2013-06-04 22:43:00,55.7,51.6,30.01,NNW,335,0.0,0.0,86,0.00,,SKC,0.00,VWS V14.01,2013-06-05 02:43:00,
2013-06-04 22:44:00,55.7,51.3,30.02,NNW,336,0.0,0.0,85,0.00,,SKC,0.00,VWS V14.01,2013-06-05 02:44:00,
2013-06-04 22:45:00,55.6,51.2,30.02,NNW,333,0.0,0.0,85,0.00,,SKC,0.00,VWS V14.01,2013-06-05 02:45:00,
2013-06-04 22:46:00,55.6,51.2,30.02,NNW,336,0.0,0.0,85,0.00,,SKC,0.00,VWS V14.01,2013-06-05 02:46:00,
2013-06-04 22:48:00,55.4,51.0,30.02,NNW,335,0.0,0.0,85,0.00,,SKC,0.00,VWS V14.01,2013-06-05 02:48:00,
2013-06-04 22:49:00,55.4,51.0,30.02,NNW,336,0.0,0.0,85,0.00,,SKC,0.00,VWS V14.01,2013-06-05 02:49:00,
2013-06-04 22:50:00,55.4,51.0,30.02,NNW,335,0.0,0.0,85,0.00,,SKC,0.00,VWS V14.01,2013-06-05 02:50:00,
2013-06-04 22:51:00,55.3,50.9,30.02,NNW,333,0.0,0.0,85,0.00,,SKC,0.00,VWS V14.01,2013-06-05 02:51:00,
2013-06-04 22:54:00,55.3,50.6,30.02,NNW,335,0.0,0.0,84,0.00,,SKC,0.00,VWS V14.01,2013-06-05 02:54:00,
2013-06-04 22:55:00,55.1,50.4,30.02,NNW,335,0.0,0.0,84,0.00,,SKC,0.00,VWS V14.01,2013-06-05 02:55:00,
2013-06-04 22:57:00,55.1,50.4,30.02,NNW,330,0.0,0.0,84,0.00,,SKC,0.00,VWS V14.01,2013-06-05 02:57:00,
2013-06-04 22:59:00,55.0,50.3,30.02,NNW,335,0.0,0.0,84,0.00,,SKC,0.00,VWS V14.01,2013-06-05 02:59:00,
2013-06-04 23:00:00,55.0,50.3,30.02,NNW,333,0.0,0.0,84,0.00,,SKC,0.00,VWS V14.01,2013-06-05 03:00:00,
2013-06-04 23:02:00,55.0,50.3,30.02,NNW,333,0.0,0.0,84,0.00,,SKC,0.00,VWS V14.01,2013-06-05 03:02:00,
2013-06-04 23:04:00,55.1,50.4,30.02,NNW,335,0.0,0.0,84,0.00,,SKC,0.00,VWS V14.01,2013-06-05 03:04:00,
2013-06-04 23:05:00,55.1,50.4,30.02,NNW,339,0.0,0.0,84,0.00,,SKC,0.00,VWS V14.01,2013-06-05 03:05:00,
2013-06-04 23:06:00,55.1,50.4,30.02,NNW,337,0.0,0.0,84,0.00,,SKC,0.00,VWS V14.01,2013-06-05 03:06:00,
2013-06-04 23:07:00,55.1,50.4,30.02,NNW,335,0.0,0.0,84,0.00,,SKC,0.00,VWS V14.01,2013-06-05 03:07:00,
2013-06-04 23:09:00,55.1,50.4,30.02,NNW,335,0.0,0.0,84,0.00,,SKC,0.00,VWS V14.01,2013-06-05 03:09:00,
2013-06-04 23:10:00,55.1,50.7,30.02,NNW,337,0.0,0.0,85,0.00,,SKC,0.00,VWS V14.01,2013-06-05 03:10:00,
2013-06-04 23:11:00,55.1,50.7,30.02,NNW,337,0.0,0.0,85,0.00,,SKC,0.00,VWS V14.01,2013-06-05 03:11:00,
2013-06-04 23:12:00,55.1,50.7,30.02,NNW,337,0.0,0.0,85,0.00,,SKC,0.00,VWS V14.01,2013-06-05 03:12:00,
2013-06-04 23:13:00,55.1,50.7,30.02,NNW,335,0.0,0.0,85,0.00,,SKC,0.00,VWS V14.01,2013-06-05 03:13:00,
2013-06-04 23:15:00,55.1,50.7,30.02,NNW,337,0.0,0.0,85,0.00,,SKC,0.00,VWS V14.01,2013-06-05 03:15:00,
2013-06-04 23:17:00,55.1,50.7,30.02,NNW,337,0.0,0.0,85,0.00,,SKC,0.00,VWS V14.01,2013-06-05 03:17:00,
2013-06-04 23:18:00,55.1,50.7,30.02,NNW,336,0.0,0.0,85,0.00,,SKC,0.00,VWS V14.01,2013-06-05 03:18:00,
2013-06-04 23:20:00,55.1,50.7,30.02,NNW,339,0.0,0.0,85,0.00,,SKC,0.00,VWS V14.01,2013-06-05 03:20:00,
2013-06-04 23:22:00,55.1,50.7,30.02,NNW,339,0.0,0.0,85,0.00,,SKC,0.00,VWS V14.01,2013-06-05 03:22:00,
2013-06-04 23:23:00,55.1,50.7,30.02,NNW,337,0.0,0.0,85,0.00,,SKC,0.00,VWS V14.01,2013-06-05 03:23:00,
2013-06-04 23:25:00,55.0,50.3,30.02,NNW,337,0.0,0.0,84,0.00,,SKC,0.00,VWS V14.01,2013-06-05 03:25:00,
2013-06-04 23:27:00,55.0,50.3,30.02,NNW,339,0.0,0.0,84,0.00,,SKC,0.00,VWS V14.01,2013-06-05 03:27:00,
2013-06-04 23:28:00,55.0,50.3,30.02,NNW,336,0.0,0.0,84,0.00,,SKC,0.00,VWS V14.01,2013-06-05 03:28:00,
2013-06-04 23:31:00,55.0,49.9,30.04,NNW,337,0.0,0.0,83,0.00,,SKC,0.00,VWS V14.01,2013-06-05 03:31:00,
2013-06-04 23:32:00,55.0,49.9,30.04,NNW,336,0.0,0.0,83,0.00,,SKC,0.00,VWS V14.01,2013-06-05 03:32:00,
2013-06-04 23:33:00,55.0,49.9,30.04,NNW,337,0.0,0.0,83,0.00,,SKC,0.00,VWS V14.01,2013-06-05 03:33:00,
2013-06-04 23:34:00,55.0,50.3,30.04,NNW,337,0.0,0.0,84,0.00,,SKC,0.00,VWS V14.01,2013-06-05 03:34:00,
2013-06-04 23:37:00,54.8,50.1,30.04,NNW,337,0.0,0.0,84,0.00,,SKC,0.00,VWS V14.01,2013-06-05 03:37:00,
2013-06-04 23:39:00,54.8,50.1,30.04,NNW,337,0.0,0.0,84,0.00,,SKC,0.00,VWS V14.01,2013-06-05 03:39:00,
2013-06-04 23:40:00,54.7,50.0,30.04,NNW,335,0.0,0.0,84,0.00,,SKC,0.00,VWS V14.01,2013-06-05 03:40:00,
2013-06-04 23:42:00,54.7,50.0,30.04,NNW,335,0.0,0.0,84,0.00,,SKC,0.00,VWS V14.01,2013-06-05 03:42:00,
2013-06-04 23:43:00,54.5,49.5,30.04,NNW,337,0.0,0.0,83,0.00,,SKC,0.00,VWS V14.01,2013-06-05 03:43:00,
2013-06-04 23:44:00,54.5,49.5,30.04,NNW,337,0.0,0.0,83,0.00,,SKC,0.00,VWS V14.01,2013-06-05 03:44:00,
2013-06-04 23:45:00,54.5,49.5,30.04,NNW,336,0.0,0.0,83,0.00,,SKC,0.00,VWS V14.01,2013-06-05 03:45:00,
2013-06-04 23:48:00,54.5,49.8,30.04,NNW,336,0.0,0.0,84,0.00,,SKC,0.00,VWS V14.01,2013-06-05 03:48:00,
2013-06-04 23:49:00,54.5,49.8,30.04,NNW,336,0.0,0.0,84,0.00,,SKC,0.00,VWS V14.01,2013-06-05 03:49:00,
2013-06-04 23:50:00,54.5,49.8,30.04,NNW,337,0.0,0.0,84,0.00,,SKC,0.00,VWS V14.01,2013-06-05 03:50:00,
2013-06-04 23:53:00,54.4,49.3,30.04,NNW,335,0.0,0.0,83,0.00,,SKC,0.00,VWS V14.01,2013-06-05 03:53:00,
2013-06-04 23:54:00,54.4,49.3,30.04,NNW,337,0.0,0.0,83,0.00,,SKC,0.00,VWS V14.01,2013-06-05 03:54:00,
2013-06-04 23:55:00,54.4,49.3,30.04,NNW,337,0.0,0.0,83,0.00,,SKC,0.00,VWS V14.01,2013-06-05 03:55:00,
2013-06-04 23:58:00,54.4,49.3,30.04,NNW,335,0.0,0.0,83,0.00,,SKC,0.00,VWS V14.01,2013-06-05 03:58:00,
2013-06-04 23:59:00,54.4,49.3,30.04,NNW,335,0.0,0.0,83,0.00,,SKC,0.00,VWS V14.01,2013-06-05 03:59:00,